| time (UTC) | temp C | wind direction | speed KPH | gust KPH | rain 1hr cm | rain 24hr cm | rain mn cm | humidity % | barometer mb |
| 20260902213017 | 36 | 360 | 1.6 | 12.9 | 0.00 | 0.00 | 0.00 | 46 | 1012.7 |
| 20260902212951 | 36 | 360 | 1.6 | 12.9 | 0.00 | 0.00 | 0.00 | 46 | 1012.7 |
| 20260902212834 | 36 | 360 | 3.2 | 12.9 | 0.00 | 0.00 | 0.00 | 46 | 1012.7 |
| 20260902212742 | 36 | 360 | 3.2 | 12.9 | 0.00 | 0.00 | 0.00 | 45 | 1012.8 |
| 20260902212624 | 36 | 360 | 4.8 | 12.9 | 0.00 | 0.00 | 0.00 | 45 | 1012.8 |
| 20260902212554 | 36 | 360 | 6.4 | 12.9 | 0.00 | 0.00 | 0.00 | 45 | 1012.8 |
| 20260902212435 | 36 | 360 | 4.8 | 9.7 | 0.00 | 0.00 | 0.00 | 45 | 1012.8 |
| 20260902212317 | 36 | 360 | 4.8 | 8.0 | 0.00 | 0.00 | 0.00 | 45 | 1012.9 |
| 20260902212231 | 36 | 360 | 3.2 | 8.0 | 0.00 | 0.00 | 0.00 | 45 | 1012.8 |
| 20260902212133 | 36 | 360 | 3.2 | 8.0 | 0.00 | 0.00 | 0.00 | 44 | 1012.8 |
| 20260902212016 | 36 | 360 | 3.2 | 8.0 | 0.00 | 0.00 | 0.00 | 46 | 1012.8 |
| 20260902211926 | 36 | 360 | 4.8 | 8.0 | 0.00 | 0.00 | 0.00 | 46 | 1012.8 |
| 20260902211829 | 36 | 360 | 4.8 | 8.0 | 0.00 | 0.00 | 0.00 | 46 | 1012.8 |
| 20260902211732 | 36 | 360 | 4.8 | 8.0 | 0.00 | 0.00 | 0.00 | 46 | 1012.8 |
| 20260902211634 | 36 | 360 | 3.2 | 6.4 | 0.00 | 0.00 | 0.00 | 46 | 1012.8 |
| 20260902211527 | 36 | 360 | 3.2 | 6.4 | 0.00 | 0.00 | 0.00 | 46 | 1012.8 |
| 20260902211430 | 36 | 360 | 1.6 | 6.4 | 0.00 | 0.00 | 0.00 | 46 | 1012.9 |
| 20260902211333 | 36 | 360 | 1.6 | 6.4 | 0.00 | 0.00 | 0.00 | 46 | 1012.9 |
| 20260902211216 | 36 | 360 | 3.2 | 9.7 | 0.00 | 0.00 | 0.00 | 46 | 1012.8 |
| 20260902211125 | 36 | 360 | 3.2 | 9.7 | 0.00 | 0.00 | 0.00 | 46 | 1012.9 |
| 20260902211027 | 36 | 360 | 3.2 | 9.7 | 0.00 | 0.00 | 0.00 | 46 | 1012.9 |
| 20260902210940 | 35 | 360 | 3.2 | 9.7 | 0.00 | 0.00 | 0.00 | 46 | 1012.9 |
| 20260902210841 | 35 | 360 | 4.8 | 9.7 | 0.00 | 0.00 | 0.00 | 47 | 1012.9 |
| 20260902210749 | 35 | 360 | 4.8 | 9.7 | 0.00 | 0.00 | 0.00 | 46 | 1012.9 |
| 20260902210651 | 35 | 360 | 4.8 | 9.7 | 0.00 | 0.00 | 0.00 | 46 | 1012.9 |
| 20260902210513 | 35 | 360 | 6.4 | 9.7 | 0.00 | 0.00 | 0.00 | 46 | 1012.9 |
| 20260902210443 | 35 | 360 | 6.4 | 9.7 | 0.00 | 0.00 | 0.00 | 47 | 1012.9 |
| 20260902210326 | 35 | 360 | 6.4 | 9.7 | 0.00 | 0.00 | 0.00 | 46 | 1012.9 |
| 20260902210235 | 35 | 360 | 6.4 | 9.7 | 0.00 | 0.00 | 0.00 | 46 | 1012.9 |
| 20260902210122 | 35 | 360 | 6.4 | 12.9 | 0.00 | 0.00 | 0.00 | 46 | 1012.9 |
| 20260902210024 | 35 | 360 | 6.4 | 12.9 | 0.00 | 0.00 | 0.00 | 46 | 1013.0 |
| 20260902205926 | 35 | 360 | 6.4 | 12.9 | 0.00 | 0.00 | 0.00 | 46 | 1013.0 |
| 20260902205837 | 35 | 360 | 6.4 | 12.9 | 0.00 | 0.00 | 0.00 | 46 | 1013.0 |
| 20260902205719 | 36 | 360 | 6.4 | 12.9 | 0.00 | 0.00 | 0.00 | 46 | 1013.0 |
| 20260902205624 | 35 | 360 | 6.4 | 12.9 | 0.00 | 0.00 | 0.00 | 46 | 1013.1 |
| 20260902205554 | 35 | 360 | 6.4 | 12.9 | 0.00 | 0.00 | 0.00 | 46 | 1013.1 |
| 20260902205415 | 35 | 360 | 6.4 | 12.9 | 0.00 | 0.00 | 0.00 | 47 | 1013.1 |
| 20260902205318 | 35 | 360 | 6.4 | 12.9 | 0.00 | 0.00 | 0.00 | 46 | 1013.1 |
| 20260902205228 | 36 | 360 | 6.4 | 12.9 | 0.00 | 0.00 | 0.00 | 46 | 1013.1 |
| 20260902205130 | 36 | 360 | 6.4 | 12.9 | 0.00 | 0.00 | 0.00 | 46 | 1013.1 |
| 20260902205033 | 36 | 360 | 6.4 | 12.9 | 0.00 | 0.00 | 0.00 | 46 | 1013.1 |
| 20260902204919 | 36 | 360 | 4.8 | 9.7 | 0.00 | 0.00 | 0.00 | 46 | 1013.2 |
| 20260902204850 | 36 | 360 | 3.2 | 8.0 | 0.00 | 0.00 | 0.00 | 45 | 1013.2 |
| 20260902204738 | 36 | 360 | 1.6 | 8.0 | 0.00 | 0.00 | 0.00 | 45 | 1013.2 |
| 20260902204619 | 36 | 360 | 3.2 | 9.7 | 0.00 | 0.00 | 0.00 | 45 | 1013.2 |
| 20260902204522 | 36 | 360 | 3.2 | 9.7 | 0.00 | 0.00 | 0.00 | 45 | 1013.3 |
| 20260902204452 | 36 | 360 | 3.2 | 9.7 | 0.00 | 0.00 | 0.00 | 45 | 1013.2 |
| 20260902204314 | 36 | 360 | 4.8 | 9.7 | 0.00 | 0.00 | 0.00 | 46 | 1013.2 |
| 20260902204221 | 36 | 360 | 3.2 | 9.7 | 0.00 | 0.00 | 0.00 | 46 | 1013.3 |
| 20260902204131 | 36 | 360 | 3.2 | 9.7 | 0.00 | 0.00 | 0.00 | 46 | 1013.2 |
| 20260902204033 | 36 | 360 | 3.2 | 9.7 | 0.00 | 0.00 | 0.00 | 46 | 1013.2 |
| 20260902203916 | 36 | 360 | 3.2 | 9.7 | 0.00 | 0.00 | 0.00 | 46 | 1013.3 |
| 20260902203819 | 36 | 360 | 3.2 | 9.7 | 0.00 | 0.00 | 0.00 | 47 | 1013.3 |
| 20260902203722 | 36 | 360 | 3.2 | 8.0 | 0.00 | 0.00 | 0.00 | 49 | 1013.2 |
| 20260902203635 | 36 | 360 | 1.6 | 8.0 | 0.00 | 0.00 | 0.00 | 47 | 1013.3 |
| 20260902203538 | 35 | 360 | 1.6 | 8.0 | 0.00 | 0.00 | 0.00 | 46 | 1013.3 |
| 20260902203420 | 35 | 360 | 1.6 | 8.0 | 0.00 | 0.00 | 0.00 | 46 | 1013.3 |
| 20260902203330 | 35 | 360 | 3.2 | 8.0 | 0.00 | 0.00 | 0.00 | 46 | 1013.3 |
| 20260902203232 | 35 | 360 | 3.2 | 8.0 | 0.00 | 0.00 | 0.00 | 46 | 1013.3 |
| 20260902203115 | 36 | 360 | 4.8 | 9.7 | 0.00 | 0.00 | 0.00 | 46 | 1013.3 |
| 20260902203022 | 36 | 360 | 3.2 | 9.7 | 0.00 | 0.00 | 0.00 | 46 | 1013.3 |
| 20260902202932 | 36 | 360 | 3.2 | 9.7 | 0.00 | 0.00 | 0.00 | 46 | 1013.4 |
| 20260902202815 | 36 | 360 | 1.6 | 9.7 | 0.00 | 0.00 | 0.00 | 46 | 1013.4 |
| 20260902202717 | 35 | 360 | 1.6 | 9.7 | 0.00 | 0.00 | 0.00 | 47 | 1013.4 |
| 20260902202620 | 35 | 360 | 3.2 | 9.7 | 0.00 | 0.00 | 0.00 | 47 | 1013.4 |
| 20260902202530 | 35 | 360 | 4.8 | 9.7 | 0.00 | 0.00 | 0.00 | 47 | 1013.4 |
| 20260902202437 | 35 | 360 | 6.4 | 9.7 | 0.00 | 0.00 | 0.00 | 46 | 1013.4 |
| 20260902202318 | 35 | 360 | 6.4 | 9.7 | 0.00 | 0.00 | 0.00 | 46 | 1013.4 |
| 20260902202229 | 35 | 360 | 4.8 | 9.7 | 0.00 | 0.00 | 0.00 | 46 | 1013.4 |
| 20260902202131 | 36 | 360 | 6.4 | 14.5 | 0.00 | 0.00 | 0.00 | 45 | 1013.4 |
| 20260902202014 | 36 | 360 | 4.8 | 14.5 | 0.00 | 0.00 | 0.00 | 46 | 1013.5 |
| 20260902201917 | 36 | 360 | 4.8 | 14.5 | 0.00 | 0.00 | 0.00 | 46 | 1013.5 |
| 20260902201833 | 36 | 360 | 3.2 | 14.5 | 0.00 | 0.00 | 0.00 | 45 | 1013.5 |
| 20260902201735 | 36 | 360 | 1.6 | 14.5 | 0.00 | 0.00 | 0.00 | 45 | 1013.5 |
| 20260902201617 | 36 | 360 | 4.8 | 14.5 | 0.00 | 0.00 | 0.00 | 45 | 1013.5 |
| 20260902201520 | 36 | 360 | 6.4 | 14.5 | 0.00 | 0.00 | 0.00 | 45 | 1013.5 |
| 20260902201424 | 36 | 360 | 8.0 | 14.5 | 0.00 | 0.00 | 0.00 | 45 | 1013.6 |
| 20260902201334 | 36 | 360 | 8.0 | 14.5 | 0.00 | 0.00 | 0.00 | 45 | 1013.6 |
| 20260902201241 | 36 | 360 | 6.4 | 14.5 | 0.00 | 0.00 | 0.00 | 44 | 1013.6 |
| 20260902201122 | 36 | 360 | 4.8 | 14.5 | 0.00 | 0.00 | 0.00 | 44 | 1013.7 |
| 20260902201030 | 36 | 360 | 3.2 | 8.0 | 0.00 | 0.00 | 0.00 | 44 | 1013.6 |
| 20260902200914 | 36 | 360 | 3.2 | 9.7 | 0.00 | 0.00 | 0.00 | 44 | 1013.7 |
| 20260902200816 | 36 | 360 | 3.2 | 9.7 | 0.00 | 0.00 | 0.00 | 44 | 1013.7 |
| 20260902200726 | 36 | 360 | 4.8 | 9.7 | 0.00 | 0.00 | 0.00 | 44 | 1013.7 |
| 20260902200649 | 36 | 360 | 3.2 | 9.7 | 0.00 | 0.00 | 0.00 | 44 | 1013.7 |
| 20260902200515 | 36 | 360 | 3.2 | 9.7 | 0.00 | 0.00 | 0.00 | 44 | 1013.8 |
| 20260902200425 | 36 | 360 | 1.6 | 9.7 | 0.00 | 0.00 | 0.00 | 44 | 1013.7 |
| 20260902200328 | 36 | 360 | 3.2 | 9.7 | 0.00 | 0.00 | 0.00 | 45 | 1013.7 |
| 20260902200258 | 36 | 360 | 3.2 | 9.7 | 0.00 | 0.00 | 0.00 | 44 | 1013.8 |
| 20260902200119 | 36 | 360 | 3.2 | 9.7 | 0.00 | 0.00 | 0.00 | 45 | 1013.8 |
| 20260902200021 | 36 | 360 | 3.2 | 9.7 | 0.00 | 0.00 | 0.00 | 46 | 1013.9 |
| 20260902195931 | 36 | 360 | 1.6 | 9.7 | 0.00 | 0.00 | 0.00 | 46 | 1013.9 |
| 20260902195818 | 36 | 360 | 1.6 | 9.7 | 0.00 | 0.00 | 0.00 | 45 | 1013.9 |
| 20260902195720 | 36 | 360 | 1.6 | 9.7 | 0.00 | 0.00 | 0.00 | 46 | 1013.9 |
| 20260902195622 | 36 | 360 | 3.2 | 9.7 | 0.00 | 0.00 | 0.00 | 46 | 1013.9 |
| 20260902195534 | 36 | 360 | 3.2 | 9.7 | 0.00 | 0.00 | 0.00 | 46 | 1014.0 |
| 20260902195435 | 36 | 360 | 4.8 | 9.7 | 0.00 | 0.00 | 0.00 | 45 | 1013.9 |
| 20260902195320 | 36 | 360 | 4.8 | 8.0 | 0.00 | 0.00 | 0.00 | 45 | 1014.0 |
| 20260902195223 | 36 | 360 | 4.8 | 8.0 | 0.00 | 0.00 | 0.00 | 45 | 1014.0 |
| 20260902195153 | 36 | 360 | 4.8 | 8.0 | 0.00 | 0.00 | 0.00 | 44 | 1014.0 |
| 20260902195015 | 36 | 360 | 4.8 | 8.0 | 0.00 | 0.00 | 0.00 | 44 | 1014.0 |
| 20260902194917 | 36 | 360 | 3.2 | 8.0 | 0.00 | 0.00 | 0.00 | 44 | 1014.0 |
| 20260902194820 | 36 | 360 | 3.2 | 6.4 | 0.00 | 0.00 | 0.00 | 44 | 1014.1 |
| 20260902194729 | 37 | 360 | 3.2 | 6.4 | 0.00 | 0.00 | 0.00 | 44 | 1014.1 |
| 20260902194636 | 37 | 360 | 3.2 | 6.4 | 0.00 | 0.00 | 0.00 | 43 | 1014.0 |
| 20260902194518 | 37 | 360 | 3.2 | 6.4 | 0.00 | 0.00 | 0.00 | 43 | 1014.1 |
| 20260902194428 | 37 | 360 | 1.6 | 6.4 | 0.00 | 0.00 | 0.00 | 43 | 1014.1 |
| 20260902194331 | 37 | 360 | 1.6 | 6.4 | 0.00 | 0.00 | 0.00 | 42 | 1014.0 |
| 20260902194213 | 37 | 360 | 1.6 | 6.4 | 0.00 | 0.00 | 0.00 | 42 | 1014.1 |
| 20260902194116 | 37 | 360 | 3.2 | 6.4 | 0.00 | 0.00 | 0.00 | 41 | 1014.1 |
| 20260902194030 | 37 | 360 | 3.2 | 6.4 | 0.00 | 0.00 | 0.00 | 41 | 1014.1 |
| 20260902193953 | 37 | 360 | 3.2 | 6.4 | 0.00 | 0.00 | 0.00 | 41 | 1014.2 |
| 20260902193815 | 37 | 360 | 3.2 | 4.8 | 0.00 | 0.00 | 0.00 | 41 | 1014.2 |
| 20260902193725 | 37 | 360 | 1.6 | 4.8 | 0.00 | 0.00 | 0.00 | 41 | 1014.2 |
| 20260902193647 | 37 | 360 | 1.6 | 4.8 | 0.00 | 0.00 | 0.00 | 43 | 1014.2 |
| 20260902193536 | 37 | 360 | 1.6 | 4.8 | 0.00 | 0.00 | 0.00 | 43 | 1014.2 |
| 20260902193422 | 37 | 360 | 3.2 | 4.8 | 0.00 | 0.00 | 0.00 | 44 | 1014.1 |
| 20260902193325 | 37 | 360 | 3.2 | 6.4 | 0.00 | 0.00 | 0.00 | 44 | 1014.3 |
| 20260902193255 | 37 | 360 | 3.2 | 6.4 | 0.00 | 0.00 | 0.00 | 44 | 1014.2 |
| 20260902193117 | 37 | 360 | 3.2 | 6.4 | 0.00 | 0.00 | 0.00 | 43 | 1014.3 |
| 20260902193019 | 37 | 360 | 3.2 | 6.4 | 0.00 | 0.00 | 0.00 | 44 | 1014.3 |
| 20260902192922 | 37 | 360 | 3.2 | 6.4 | 0.00 | 0.00 | 0.00 | 44 | 1014.3 |
| 20260902192825 | 37 | 360 | 3.2 | 6.4 | 0.00 | 0.00 | 0.00 | 43 | 1014.3 |
| 20260902192738 | 37 | 360 | 3.2 | 6.4 | 0.00 | 0.00 | 0.00 | 43 | 1014.3 |
| 20260902192620 | 37 | 360 | 3.2 | 8.0 | 0.00 | 0.00 | 0.00 | 43 | 1014.3 |
| 20260902192523 | 37 | 360 | 3.2 | 8.0 | 0.00 | 0.00 | 0.00 | 43 | 1014.3 |
| 20260902192433 | 37 | 360 | 3.2 | 8.0 | 0.00 | 0.00 | 0.00 | 43 | 1014.3 |
| 20260902192315 | 37 | 360 | 3.2 | 8.0 | 0.00 | 0.00 | 0.00 | 43 | 1014.3 |
| 20260902192217 | 37 | 360 | 3.2 | 8.0 | 0.00 | 0.00 | 0.00 | 42 | 1014.3 |
| 20260902192131 | 37 | 360 | 3.2 | 8.0 | 0.00 | 0.00 | 0.00 | 42 | 1014.4 |
| 20260902192033 | 37 | 360 | 3.2 | 8.0 | 0.00 | 0.00 | 0.00 | 42 | 1014.3 |
| 20260902191943 | 37 | 360 | 3.2 | 8.0 | 0.00 | 0.00 | 0.00 | 42 | 1014.3 |
| 20260902191824 | 37 | 360 | 3.2 | 8.0 | 0.00 | 0.00 | 0.00 | 42 | 1014.4 |
| 20260902191754 | 37 | 360 | 3.2 | 8.0 | 0.00 | 0.00 | 0.00 | 42 | 1014.3 |
| 20260902191616 | 37 | 360 | 3.2 | 8.0 | 0.00 | 0.00 | 0.00 | 42 | 1014.4 |
| 20260902191518 | 37 | 360 | 3.2 | 8.0 | 0.00 | 0.00 | 0.00 | 42 | 1014.4 |
| 20260902191425 | 37 | 360 | 3.2 | 8.0 | 0.00 | 0.00 | 0.00 | 42 | 1014.6 |
| 20260902191314 | 37 | 360 | 3.2 | 9.7 | 0.00 | 0.00 | 0.00 | 42 | 1014.5 |
| 20260902191214 | 37 | 360 | 3.2 | 9.7 | 0.00 | 0.00 | 0.00 | 43 | 1014.5 |
| 20260902191124 | 37 | 360 | 3.2 | 9.7 | 0.00 | 0.00 | 0.00 | 42 | 1014.6 |
| 20260902191027 | 37 | 360 | 3.2 | 9.7 | 0.00 | 0.00 | 0.00 | 42 | 1014.6 |
| 20260902190929 | 37 | 360 | 4.8 | 9.7 | 0.00 | 0.00 | 0.00 | 41 | 1014.6 |
| 20260902190838 | 38 | 360 | 4.8 | 9.7 | 0.00 | 0.00 | 0.00 | 41 | 1014.6 |
| 20260902190743 | 38 | 360 | 4.8 | 9.7 | 0.00 | 0.00 | 0.00 | 40 | 1014.6 |
| 20260902190629 | 38 | 360 | 4.8 | 9.7 | 0.00 | 0.00 | 0.00 | 40 | 1014.7 |
| 20260902190530 | 38 | 360 | 4.8 | 9.7 | 0.00 | 0.00 | 0.00 | 40 | 1014.7 |
| 20260902190418 | 39 | 360 | 4.8 | 9.7 | 0.00 | 0.00 | 0.00 | 39 | 1014.7 |
| 20260902190321 | 39 | 360 | 4.8 | 9.7 | 0.00 | 0.00 | 0.00 | 40 | 1014.7 |
| 20260902190222 | 39 | 360 | 4.8 | 9.7 | 0.00 | 0.00 | 0.00 | 39 | 1014.7 |
| 20260902190130 | 39 | 360 | 3.2 | 8.0 | 0.00 | 0.00 | 0.00 | 39 | 1014.6 |
| 20260902190033 | 39 | 360 | 1.6 | 8.0 | 0.00 | 0.00 | 0.00 | 39 | 1014.6 |
| 20260902185918 | 39 | 360 | 1.6 | 6.4 | 0.00 | 0.00 | 0.00 | 39 | 1014.6 |
| 20260902185827 | 39 | 360 | 1.6 | 6.4 | 0.00 | 0.00 | 0.00 | 39 | 1014.7 |
| 20260902185723 | 39 | 263 | 3.2 | 6.4 | 0.00 | 0.00 | 0.00 | 40 | 1014.6 |
| 20260902185631 | 38 | 265 | 3.2 | 6.4 | 0.00 | 0.00 | 0.00 | 39 | 1014.7 |
| 20260902185533 | 38 | 360 | 3.2 | 6.4 | 0.00 | 0.00 | 0.00 | 39 | 1014.7 |
| 20260902185442 | 38 | 360 | 3.2 | 6.4 | 0.00 | 0.00 | 0.00 | 39 | 1014.7 |
| 20260902185316 | 38 | 360 | 3.2 | 6.4 | 0.00 | 0.00 | 0.00 | 39 | 1014.8 |
| 20260902185248 | 39 | 360 | 4.8 | 6.4 | 0.00 | 0.00 | 0.00 | 39 | 1014.8 |
| 20260902185136 | 39 | 360 | 4.8 | 6.4 | 0.00 | 0.00 | 0.00 | 38 | 1014.8 |
| 20260902185017 | 40 | 360 | 3.2 | 6.4 | 0.00 | 0.00 | 0.00 | 38 | 1014.9 |
| 20260902184919 | 40 | 360 | 3.2 | 6.4 | 0.00 | 0.00 | 0.00 | 38 | 1015.0 |
| 20260902184820 | 40 | 360 | 3.2 | 6.4 | 0.00 | 0.00 | 0.00 | 38 | 1014.9 |
| 20260902184749 | 40 | 360 | 3.2 | 8.0 | 0.00 | 0.00 | 0.00 | 37 | 1014.9 |
| 20260902184630 | 40 | 360 | 3.2 | 8.0 | 0.00 | 0.00 | 0.00 | 38 | 1014.9 |
| 20260902184524 | 40 | 360 | 3.2 | 8.0 | 0.00 | 0.00 | 0.00 | 38 | 1014.9 |
| 20260902184426 | 40 | 360 | 3.2 | 8.0 | 0.00 | 0.00 | 0.00 | 39 | 1015.0 |
| 20260902184329 | 40 | 360 | 3.2 | 8.0 | 0.00 | 0.00 | 0.00 | 39 | 1015.0 |
| 20260902184237 | 40 | 360 | 3.2 | 9.7 | 0.00 | 0.00 | 0.00 | 39 | 1014.9 |
| 20260902184137 | 39 | 360 | 4.8 | 9.7 | 0.00 | 0.00 | 0.00 | 39 | 1015.0 |
| 20260902184017 | 39 | 360 | 3.2 | 9.7 | 0.00 | 0.00 | 0.00 | 40 | 1014.9 |
| 20260902183925 | 38 | 360 | 3.2 | 9.7 | 0.00 | 0.00 | 0.00 | 40 | 1015.0 |
| 20260902183833 | 38 | 360 | 3.2 | 9.7 | 0.00 | 0.00 | 0.00 | 40 | 1014.9 |
| 20260902183717 | 38 | 257 | 3.2 | 9.7 | 0.00 | 0.00 | 0.00 | 40 | 1015.0 |
| 20260902183618 | 38 | 360 | 4.8 | 9.7 | 0.00 | 0.00 | 0.00 | 40 | 1015.0 |
| 20260902183527 | 39 | 360 | 4.8 | 9.7 | 0.00 | 0.00 | 0.00 | 38 | 1015.0 |
| 20260902183427 | 39 | 360 | 3.2 | 9.7 | 0.00 | 0.00 | 0.00 | 38 | 1015.0 |
| 20260902183337 | 40 | 360 | 3.2 | 9.7 | 0.00 | 0.00 | 0.00 | 38 | 1015.1 |
| 20260902183220 | 40 | 360 | 3.2 | 9.7 | 0.00 | 0.00 | 0.00 | 38 | 1015.1 |
| 20260902183117 | 40 | 360 | 3.2 | 9.7 | 0.00 | 0.00 | 0.00 | 37 | 1015.0 |
| 20260902183029 | 40 | 360 | 3.2 | 9.7 | 0.00 | 0.00 | 0.00 | 37 | 1015.1 |
| 20260902182929 | 40 | 360 | 3.2 | 16.1 | 0.00 | 0.00 | 0.00 | 37 | 1015.1 |
| 20260902182817 | 41 | 360 | 3.2 | 16.1 | 0.00 | 0.00 | 0.00 | 36 | 1015.1 |
| 20260902182717 | 41 | 360 | 1.6 | 16.1 | 0.00 | 0.00 | 0.00 | 36 | 1015.1 |
| 20260902182646 | 41 | 360 | 1.6 | 16.1 | 0.00 | 0.00 | 0.00 | 37 | 1015.2 |
| 20260902182524 | 41 | 360 | 3.2 | 16.1 | 0.00 | 0.00 | 0.00 | 37 | 1015.1 |
| 20260902182433 | 41 | 360 | 4.8 | 16.1 | 0.00 | 0.00 | 0.00 | 37 | 1015.1 |
| 20260902182353 | 41 | 360 | 4.8 | 16.1 | 0.00 | 0.00 | 0.00 | 37 | 1015.1 |
| 20260902182224 | 41 | 360 | 3.2 | 16.1 | 0.00 | 0.00 | 0.00 | 37 | 1015.2 |
| 20260902182120 | 41 | 216 | 3.2 | 14.5 | 0.00 | 0.00 | 0.00 | 37 | 1015.2 |
| 20260902182028 | 41 | 360 | 1.6 | 6.4 | 0.00 | 0.00 | 0.00 | 37 | 1015.2 |
| 20260902181936 | 41 | 360 | 1.6 | 6.4 | 0.00 | 0.00 | 0.00 | 37 | 1015.2 |
| 20260902181833 | 40 | 360 | 3.2 | 6.4 | 0.00 | 0.00 | 0.00 | 38 | 1015.2 |
| 20260902181721 | 40 | 360 | 3.2 | 6.4 | 0.00 | 0.00 | 0.00 | 38 | 1015.2 |
| 20260902181642 | 40 | 360 | 3.2 | 6.4 | 0.00 | 0.00 | 0.00 | 39 | 1015.2 |
| 20260902181529 | 40 | 360 | 3.2 | 6.4 | 0.00 | 0.00 | 0.00 | 39 | 1015.3 |
| 20260902181436 | 40 | 360 | 3.2 | 6.4 | 0.00 | 0.00 | 0.00 | 39 | 1015.3 |
| 20260902181315 | 39 | 360 | 1.6 | 9.7 | 0.00 | 0.00 | 0.00 | 41 | 1015.4 |
| 20260902181220 | 38 | 360 | 1.6 | 9.7 | 0.00 | 0.00 | 0.00 | 41 | 1015.3 |
| 20260902181149 | 38 | 360 | 3.2 | 9.7 | 0.00 | 0.00 | 0.00 | 42 | 1015.4 |
| 20260902181031 | 37 | 360 | 3.2 | 9.7 | 0.00 | 0.00 | 0.00 | 43 | 1015.4 |
| 20260902180914 | 37 | 360 | 1.6 | 12.9 | 0.00 | 0.00 | 0.00 | 43 | 1015.4 |
| 20260902180821 | 37 | 360 | 3.2 | 12.9 | 0.00 | 0.00 | 0.00 | 43 | 1015.4 |
| 20260902180750 | 36 | 360 | 4.8 | 12.9 | 0.00 | 0.00 | 0.00 | 44 | 1015.4 |
| 20260902180629 | 36 | 360 | 4.8 | 12.9 | 0.00 | 0.00 | 0.00 | 44 | 1015.5 |
| 20260902180539 | 36 | 360 | 4.8 | 12.9 | 0.00 | 0.00 | 0.00 | 44 | 1015.4 |
| 20260902180424 | 36 | 360 | 4.8 | 16.1 | 0.00 | 0.00 | 0.00 | 44 | 1015.4 |
| 20260902180326 | 36 | 360 | 6.4 | 16.1 | 0.00 | 0.00 | 0.00 | 45 | 1015.5 |
| 20260902180236 | 36 | 360 | 6.4 | 16.1 | 0.00 | 0.00 | 0.00 | 45 | 1015.5 |
| 20260902180131 | 36 | 360 | 6.4 | 16.1 | 0.00 | 0.00 | 0.00 | 44 | 1015.5 |
| 20260902180035 | 36 | 360 | 4.8 | 16.1 | 0.00 | 0.00 | 0.00 | 46 | 1015.5 |
| 20260902175918 | 36 | 360 | 6.4 | 16.1 | 0.00 | 0.00 | 0.00 | 46 | 1015.5 |
| 20260902175822 | 36 | 360 | 8.0 | 16.1 | 0.00 | 0.00 | 0.00 | 45 | 1015.5 |
| 20260902175725 | 36 | 360 | 8.0 | 16.1 | 0.00 | 0.00 | 0.00 | 45 | 1015.6 |
| 20260902175637 | 36 | 360 | 6.4 | 16.1 | 0.00 | 0.00 | 0.00 | 44 | 1015.6 |
| 20260902175518 | 36 | 360 | 6.4 | 14.5 | 0.00 | 0.00 | 0.00 | 44 | 1015.6 |
| 20260902175421 | 36 | 360 | 8.0 | 14.5 | 0.00 | 0.00 | 0.00 | 44 | 1015.7 |
| 20260902175329 | 36 | 360 | 6.4 | 14.5 | 0.00 | 0.00 | 0.00 | 44 | 1015.7 |
| 20260902175232 | 37 | 360 | 4.8 | 14.5 | 0.00 | 0.00 | 0.00 | 43 | 1015.7 |
| 20260902175115 | 37 | 360 | 4.8 | 12.9 | 0.00 | 0.00 | 0.00 | 42 | 1015.8 |
| 20260902175025 | 37 | 360 | 6.4 | 12.9 | 0.00 | 0.00 | 0.00 | 42 | 1015.8 |
| 20260902174932 | 37 | 360 | 6.4 | 12.9 | 0.00 | 0.00 | 0.00 | 42 | 1015.8 |
| 20260902174901 | 37 | 360 | 6.4 | 14.5 | 0.00 | 0.00 | 0.00 | 42 | 1015.8 |
| 20260902174723 | 37 | 360 | 3.2 | 16.1 | 0.00 | 0.00 | 0.00 | 43 | 1015.8 |
| 20260902174626 | 37 | 360 | 3.2 | 16.1 | 0.00 | 0.00 | 0.00 | 43 | 1015.9 |
| 20260902174528 | 37 | 360 | 3.2 | 16.1 | 0.00 | 0.00 | 0.00 | 43 | 1015.8 |
| 20260902174439 | 37 | 360 | 3.2 | 16.1 | 0.00 | 0.00 | 0.00 | 43 | 1015.8 |
| 20260902174345 | 37 | 360 | 4.8 | 16.1 | 0.00 | 0.00 | 0.00 | 43 | 1015.8 |
| 20260902174227 | 36 | 360 | 8.0 | 16.1 | 0.00 | 0.00 | 0.00 | 43 | 1015.9 |
| 20260902174137 | 37 | 360 | 8.0 | 16.1 | 0.00 | 0.00 | 0.00 | 42 | 1015.9 |
| 20260902174040 | 37 | 177 | 4.8 | 16.1 | 0.00 | 0.00 | 0.00 | 42 | 1015.9 |
| 20260902173921 | 37 | 360 | 4.8 | 16.1 | 0.00 | 0.00 | 0.00 | 42 | 1015.9 |
| 20260902173824 | 37 | 360 | 3.2 | 16.1 | 0.00 | 0.00 | 0.00 | 43 | 1015.9 |
| 20260902173713 | 37 | 360 | 4.8 | 16.1 | 0.00 | 0.00 | 0.00 | 44 | 1016.0 |
| 20260902173540 | 37 | 360 | 6.4 | 16.1 | 0.00 | 0.00 | 0.00 | 43 | 1016.0 |
| 20260902173422 | 37 | 360 | 4.8 | 14.5 | 0.00 | 0.00 | 0.00 | 44 | 1015.9 |
| 20260902173324 | 37 | 360 | 3.2 | 14.5 | 0.00 | 0.00 | 0.00 | 44 | 1015.9 |
| 20260902173234 | 36 | 360 | 3.2 | 14.5 | 0.00 | 0.00 | 0.00 | 45 | 1016.1 |
| 20260902173137 | 36 | 360 | 3.2 | 14.5 | 0.00 | 0.00 | 0.00 | 45 | 1016.1 |
| 20260902173045 | 36 | 360 | 6.4 | 14.5 | 0.00 | 0.00 | 0.00 | 44 | 1016.1 |
| 20260902172931 | 36 | 360 | 8.0 | 14.5 | 0.00 | 0.00 | 0.00 | 44 | 1016.0 |
| 20260902172815 | 36 | 360 | 8.0 | 14.5 | 0.00 | 0.00 | 0.00 | 44 | 1016.0 |
| 20260902172717 | 37 | 360 | 6.4 | 12.9 | 0.00 | 0.00 | 0.00 | 43 | 1016.1 |
| 20260902172627 | 37 | 360 | 4.8 | 12.9 | 0.00 | 0.00 | 0.00 | 42 | 1016.2 |
| 20260902172529 | 37 | 360 | 3.2 | 12.9 | 0.00 | 0.00 | 0.00 | 44 | 1016.0 |
| 20260902172432 | 37 | 360 | 3.2 | 12.9 | 0.00 | 0.00 | 0.00 | 44 | 1016.0 |
| 20260902172319 | 36 | 360 | 4.8 | 12.9 | 0.00 | 0.00 | 0.00 | 44 | 1016.1 |
| 20260902172229 | 37 | 360 | 6.4 | 12.9 | 0.00 | 0.00 | 0.00 | 43 | 1016.2 |
| 20260902172151 | 37 | 360 | 6.4 | 12.9 | 0.00 | 0.00 | 0.00 | 43 | 1016.2 |
| 20260902172013 | 37 | 360 | 6.4 | 12.9 | 0.00 | 0.00 | 0.00 | 42 | 1016.2 |
| 20260902171923 | 37 | 360 | 6.4 | 12.9 | 0.00 | 0.00 | 0.00 | 42 | 1016.2 |
| 20260902171846 | 37 | 135 | 4.8 | 9.7 | 0.00 | 0.00 | 0.00 | 41 | 1016.2 |
| 20260902171735 | 38 | 360 | 4.8 | 9.7 | 0.00 | 0.00 | 0.00 | 40 | 1016.2 |
| 20260902171641 | 38 | 360 | 3.2 | 9.7 | 0.00 | 0.00 | 0.00 | 40 | 1016.3 |
| 20260902171549 | 39 | 360 | 1.6 | 8.0 | 0.00 | 0.00 | 0.00 | 40 | 1016.3 |
| 20260902171431 | 38 | 360 | 1.6 | 3.2 | 0.00 | 0.00 | 0.00 | 41 | 1016.3 |
| 20260902171342 | 38 | 360 | 1.6 | 6.4 | 0.00 | 0.00 | 0.00 | 41 | 1016.3 |
| 20260902171223 | 38 | 360 | 1.6 | 8.0 | 0.00 | 0.00 | 0.00 | 41 | 1016.3 |
| 20260902171126 | 38 | 360 | 1.6 | 8.0 | 0.00 | 0.00 | 0.00 | 41 | 1016.4 |
| 20260902171036 | 38 | 360 | 1.6 | 8.0 | 0.00 | 0.00 | 0.00 | 40 | 1016.4 |
| 20260902170922 | 38 | 360 | 1.6 | 8.0 | 0.00 | 0.00 | 0.00 | 40 | 1016.4 |
| 20260902170845 | 38 | 360 | 1.6 | 9.7 | 0.00 | 0.00 | 0.00 | 41 | 1016.4 |
| 20260902170734 | 38 | 360 | 1.6 | 9.7 | 0.00 | 0.00 | 0.00 | 41 | 1016.4 |
| 20260902170637 | 38 | 360 | 3.2 | 9.7 | 0.00 | 0.00 | 0.00 | 42 | 1016.5 |
| 20260902170520 | 37 | 360 | 3.2 | 12.9 | 0.00 | 0.00 | 0.00 | 42 | 1016.4 |
| 20260902170423 | 37 | 360 | 4.8 | 16.1 | 0.00 | 0.00 | 0.00 | 42 | 1016.5 |
| 20260902170331 | 37 | 360 | 4.8 | 16.1 | 0.00 | 0.00 | 0.00 | 42 | 1016.5 |
| 20260902170217 | 38 | 360 | 4.8 | 16.1 | 0.00 | 0.00 | 0.00 | 41 | 1016.5 |
| 20260902170120 | 38 | 360 | 4.8 | 16.1 | 0.00 | 0.00 | 0.00 | 41 | 1016.5 |
| 20260902170050 | 38 | 360 | 3.2 | 16.1 | 0.00 | 0.00 | 0.00 | 41 | 1016.5 |
| 20260902165932 | 38 | 360 | 4.8 | 16.1 | 0.00 | 0.00 | 0.00 | 42 | 1016.5 |
| 20260902165815 | 38 | 360 | 6.4 | 14.5 | 0.00 | 0.00 | 0.00 | 43 | 1016.6 |
| 20260902165718 | 38 | 360 | 8.0 | 14.5 | 0.00 | 0.00 | 0.00 | 42 | 1016.6 |
| 20260902165631 | 38 | 360 | 6.4 | 14.5 | 0.00 | 0.00 | 0.00 | 42 | 1016.5 |
| 20260902165514 | 38 | 360 | 4.8 | 9.7 | 0.00 | 0.00 | 0.00 | 42 | 1016.5 |
| 20260902165417 | 38 | 360 | 3.2 | 9.7 | 0.00 | 0.00 | 0.00 | 42 | 1016.5 |
| 20260902165326 | 38 | 360 | 3.2 | 8.0 | 0.00 | 0.00 | 0.00 | 43 | 1016.5 |
| 20260902165229 | 38 | 360 | 3.2 | 8.0 | 0.00 | 0.00 | 0.00 | 43 | 1016.5 |
| 20260902165132 | 38 | 360 | 3.2 | 8.0 | 0.00 | 0.00 | 0.00 | 43 | 1016.6 |
| 20260902165046 | 37 | 360 | 3.2 | 12.9 | 0.00 | 0.00 | 0.00 | 44 | 1016.6 |
| 20260902164929 | 37 | 360 | 3.2 | 12.9 | 0.00 | 0.00 | 0.00 | 43 | 1016.6 |
| 20260902164836 | 37 | 360 | 3.2 | 12.9 | 0.00 | 0.00 | 0.00 | 44 | 1016.6 |
| 20260902164719 | 37 | 360 | 3.2 | 12.9 | 0.00 | 0.00 | 0.00 | 44 | 1016.7 |
| 20260902164621 | 37 | 360 | 4.8 | 12.9 | 0.00 | 0.00 | 0.00 | 44 | 1016.6 |
| 20260902164530 | 37 | 360 | 4.8 | 12.9 | 0.00 | 0.00 | 0.00 | 43 | 1016.7 |
| 20260902164414 | 37 | 360 | 4.8 | 12.9 | 0.00 | 0.00 | 0.00 | 43 | 1016.7 |
| 20260902163633 | 36 | 360 | 3.2 | 9.7 | 0.00 | 0.00 | 0.00 | 46 | 1016.7 |
| 20260902163517 | 36 | 360 | 3.2 | 12.9 | 0.00 | 0.00 | 0.00 | 46 | 1016.7 |
| 20260902163437 | 36 | 360 | 3.2 | 12.9 | 0.00 | 0.00 | 0.00 | 47 | 1016.7 |
| 20260902163317 | 36 | 360 | 1.6 | 16.1 | 0.00 | 0.00 | 0.00 | 47 | 1016.7 |
| 20260902163217 | 36 | 360 | 1.6 | 16.1 | 0.00 | 0.00 | 0.00 | 48 | 1016.7 |
| 20260902163118 | 35 | 360 | 1.6 | 16.1 | 0.00 | 0.00 | 0.00 | 49 | 1016.7 |
| 20260902163019 | 35 | 360 | 3.2 | 16.1 | 0.00 | 0.00 | 0.00 | 49 | 1016.7 |
| 20260902162918 | 35 | 360 | 4.8 | 16.1 | 0.00 | 0.00 | 0.00 | 48 | 1016.8 |
| 20260902162838 | 35 | 360 | 6.4 | 16.1 | 0.00 | 0.00 | 0.00 | 48 | 1016.8 |
| 20260902162720 | 35 | 360 | 6.4 | 16.1 | 0.00 | 0.00 | 0.00 | 48 | 1016.8 |
| 20260902162642 | 35 | 360 | 6.4 | 16.1 | 0.00 | 0.00 | 0.00 | 48 | 1016.8 |
| 20260902162520 | 35 | 360 | 6.4 | 16.1 | 0.00 | 0.00 | 0.00 | 47 | 1016.8 |
| 20260902162418 | 35 | 360 | 4.8 | 14.5 | 0.00 | 0.00 | 0.00 | 47 | 1016.8 |
| 20260902162318 | 36 | 360 | 3.2 | 9.7 | 0.00 | 0.00 | 0.00 | 47 | 1016.8 |
| 20260902162220 | 36 | 360 | 3.2 | 8.0 | 0.00 | 0.00 | 0.00 | 46 | 1016.8 |
| 20260902162122 | 36 | 360 | 4.8 | 8.0 | 0.00 | 0.00 | 0.00 | 46 | 1016.9 |
| 20260902162022 | 36 | 360 | 4.8 | 9.7 | 0.00 | 0.00 | 0.00 | 46 | 1016.9 |
| 20260902161925 | 36 | 360 | 3.2 | 9.7 | 0.00 | 0.00 | 0.00 | 46 | 1016.8 |
| 20260902161824 | 36 | 360 | 3.2 | 9.7 | 0.00 | 0.00 | 0.00 | 46 | 1016.8 |
| 20260902161725 | 36 | 360 | 3.2 | 9.7 | 0.00 | 0.00 | 0.00 | 46 | 1016.8 |
| 20260902161625 | 36 | 360 | 3.2 | 9.7 | 0.00 | 0.00 | 0.00 | 47 | 1016.8 |
| 20260902161525 | 36 | 360 | 4.8 | 9.7 | 0.00 | 0.00 | 0.00 | 48 | 1016.9 |
| 20260902161424 | 36 | 360 | 4.8 | 9.7 | 0.00 | 0.00 | 0.00 | 47 | 1016.8 |
| 20260902161322 | 37 | 360 | 4.8 | 9.7 | 0.00 | 0.00 | 0.00 | 46 | 1016.9 |
| 20260902161222 | 37 | 360 | 3.2 | 9.7 | 0.00 | 0.00 | 0.00 | 46 | 1016.8 |
| 20260902161125 | 37 | 360 | 3.2 | 8.0 | 0.00 | 0.00 | 0.00 | 47 | 1016.8 |
| 20260902161024 | 37 | 360 | 3.2 | 8.0 | 0.00 | 0.00 | 0.00 | 48 | 1016.8 |
| 20260902160924 | 36 | 360 | 3.2 | 8.0 | 0.00 | 0.00 | 0.00 | 48 | 1016.9 |
| 20260902160844 | 36 | 360 | 1.6 | 9.7 | 0.00 | 0.00 | 0.00 | 49 | 1016.8 |
| 20260902160724 | 36 | 360 | 3.2 | 9.7 | 0.00 | 0.00 | 0.00 | 48 | 1016.9 |
| 20260902160624 | 36 | 360 | 1.6 | 9.7 | 0.00 | 0.00 | 0.00 | 49 | 1016.9 |
| 20260902160525 | 35 | 360 | 3.2 | 9.7 | 0.00 | 0.00 | 0.00 | 49 | 1016.9 |
| 20260902160426 | 35 | 360 | 1.6 | 9.7 | 0.00 | 0.00 | 0.00 | 49 | 1016.9 |
| 20260902160330 | 35 | 360 | 1.6 | 9.7 | 0.00 | 0.00 | 0.00 | 49 | 1016.9 |
| 20260902160230 | 35 | 360 | 3.2 | 9.7 | 0.00 | 0.00 | 0.00 | 48 | 1016.9 |
| 20260902160131 | 35 | 360 | 3.2 | 9.7 | 0.00 | 0.00 | 0.00 | 48 | 1016.9 |
| 20260902160051 | 36 | 360 | 3.2 | 9.7 | 0.00 | 0.00 | 0.00 | 47 | 1016.9 |
| 20260902155931 | 36 | 360 | 3.2 | 9.7 | 0.00 | 0.00 | 0.00 | 47 | 1016.9 |
| 20260902155834 | 36 | 360 | 1.6 | 9.7 | 0.00 | 0.00 | 0.00 | 47 | 1016.9 |
| 20260902155732 | 36 | 360 | 1.6 | 9.7 | 0.00 | 0.00 | 0.00 | 47 | 1016.9 |
| 20260902155617 | 36 | 360 | 1.6 | 12.9 | 0.00 | 0.00 | 0.00 | 49 | 1016.9 |
| 20260902155517 | 36 | 360 | 1.6 | 12.9 | 0.00 | 0.00 | 0.00 | 50 | 1016.8 |
| 20260902155416 | 36 | 360 | 3.2 | 12.9 | 0.00 | 0.00 | 0.00 | 50 | 1016.8 |
| 20260902155337 | 35 | 360 | 4.8 | 12.9 | 0.00 | 0.00 | 0.00 | 50 | 1016.8 |
| 20260902155216 | 35 | 360 | 4.8 | 12.9 | 0.00 | 0.00 | 0.00 | 50 | 1016.9 |
| 20260902155117 | 35 | 360 | 6.4 | 12.9 | 0.00 | 0.00 | 0.00 | 50 | 1016.8 |
| 20260902155037 | 35 | 360 | 6.4 | 12.9 | 0.00 | 0.00 | 0.00 | 49 | 1016.9 |
| 20260902154933 | 36 | 360 | 4.8 | 12.9 | 0.00 | 0.00 | 0.00 | 49 | 1016.9 |
| 20260902154817 | 36 | 360 | 4.8 | 12.9 | 0.00 | 0.00 | 0.00 | 48 | 1016.8 |
| 20260902154716 | 36 | 360 | 3.2 | 8.0 | 0.00 | 0.00 | 0.00 | 49 | 1016.9 |
| 20260902154616 | 36 | 360 | 3.2 | 8.0 | 0.00 | 0.00 | 0.00 | 50 | 1016.8 |
| 20260902154517 | 36 | 360 | 3.2 | 12.9 | 0.00 | 0.00 | 0.00 | 51 | 1016.8 |
| 20260902154437 | 36 | 360 | 3.2 | 12.9 | 0.00 | 0.00 | 0.00 | 51 | 1016.9 |
| 20260902154317 | 36 | 360 | 3.2 | 12.9 | 0.00 | 0.00 | 0.00 | 51 | 1016.9 |
| 20260902154218 | 35 | 360 | 1.6 | 12.9 | 0.00 | 0.00 | 0.00 | 52 | 1016.8 |
| 20260902154123 | 35 | 360 | 1.6 | 12.9 | 0.00 | 0.00 | 0.00 | 52 | 1016.9 |
| 20260902154023 | 35 | 360 | 1.6 | 12.9 | 0.00 | 0.00 | 0.00 | 52 | 1016.8 |
| 20260902153924 | 35 | 360 | 3.2 | 12.9 | 0.00 | 0.00 | 0.00 | 52 | 1016.9 |
| 20260902153824 | 35 | 360 | 3.2 | 12.9 | 0.00 | 0.00 | 0.00 | 52 | 1016.8 |
| 20260902153725 | 34 | 360 | 6.4 | 12.9 | 0.00 | 0.00 | 0.00 | 52 | 1016.9 |
| 20260902153626 | 34 | 360 | 4.8 | 12.9 | 0.00 | 0.00 | 0.00 | 52 | 1016.9 |
| 20260902153526 | 34 | 360 | 4.8 | 12.9 | 0.00 | 0.00 | 0.00 | 54 | 1016.8 |
| 20260902153431 | 34 | 360 | 1.6 | 9.7 | 0.00 | 0.00 | 0.00 | 55 | 1016.8 |
| 20260902153332 | 34 | 360 | 3.2 | 9.7 | 0.00 | 0.00 | 0.00 | 56 | 1016.9 |
| 20260902153233 | 33 | 360 | 3.2 | 12.9 | 0.00 | 0.00 | 0.00 | 56 | 1016.8 |
| 20260902153132 | 33 | 360 | 3.2 | 14.5 | 0.00 | 0.00 | 0.00 | 56 | 1016.9 |
| 20260902153033 | 33 | 360 | 3.2 | 14.5 | 0.00 | 0.00 | 0.00 | 55 | 1016.8 |
| 20260902152933 | 33 | 360 | 3.2 | 14.5 | 0.00 | 0.00 | 0.00 | 56 | 1016.8 |
| 20260902152819 | 33 | 360 | 4.8 | 14.5 | 0.00 | 0.00 | 0.00 | 57 | 1016.9 |
| 20260902152717 | 33 | 360 | 6.4 | 14.5 | 0.00 | 0.00 | 0.00 | 56 | 1016.9 |
| 20260902152617 | 33 | 360 | 6.4 | 14.5 | 0.00 | 0.00 | 0.00 | 56 | 1016.8 |
| 20260902152517 | 33 | 360 | 6.4 | 14.5 | 0.00 | 0.00 | 0.00 | 56 | 1016.9 |
| 20260902152418 | 33 | 360 | 4.8 | 14.5 | 0.00 | 0.00 | 0.00 | 55 | 1016.8 |
| 20260902152317 | 33 | 360 | 6.4 | 14.5 | 0.00 | 0.00 | 0.00 | 56 | 1016.8 |
| 20260902152218 | 33 | 360 | 6.4 | 14.5 | 0.00 | 0.00 | 0.00 | 56 | 1016.9 |
| 20260902152142 | 33 | 360 | 6.4 | 12.9 | 0.00 | 0.00 | 0.00 | 56 | 1016.9 |
| 20260902152022 | 33 | 360 | 4.8 | 12.9 | 0.00 | 0.00 | 0.00 | 56 | 1016.8 |
| 20260902151923 | 33 | 360 | 6.4 | 12.9 | 0.00 | 0.00 | 0.00 | 56 | 1016.8 |
| 20260902151824 | 33 | 360 | 4.8 | 12.9 | 0.00 | 0.00 | 0.00 | 58 | 1016.8 |
| 20260902151724 | 33 | 360 | 3.2 | 12.9 | 0.00 | 0.00 | 0.00 | 58 | 1016.9 |
| 20260902151624 | 33 | 360 | 3.2 | 12.9 | 0.00 | 0.00 | 0.00 | 58 | 1016.7 |
| 20260902151524 | 33 | 360 | 4.8 | 12.9 | 0.00 | 0.00 | 0.00 | 58 | 1016.8 |
| 20260902151429 | 32 | 360 | 4.8 | 12.9 | 0.00 | 0.00 | 0.00 | 58 | 1016.8 |
| 20260902151328 | 32 | 360 | 4.8 | 12.9 | 0.00 | 0.00 | 0.00 | 59 | 1016.8 |
| 20260902151249 | 32 | 360 | 4.8 | 12.9 | 0.00 | 0.00 | 0.00 | 59 | 1016.8 |
| 20260902151147 | 32 | 360 | 6.4 | 12.9 | 0.00 | 0.00 | 0.00 | 59 | 1016.7 |
| 20260902151046 | 32 | 360 | 4.8 | 12.9 | 0.00 | 0.00 | 0.00 | 60 | 1016.8 |
| 20260902150925 | 32 | 360 | 4.8 | 12.9 | 0.00 | 0.00 | 0.00 | 61 | 1016.8 |
| 20260902150825 | 32 | 360 | 3.2 | 9.7 | 0.00 | 0.00 | 0.00 | 61 | 1016.8 |
| 20260902150726 | 32 | 360 | 3.2 | 12.9 | 0.00 | 0.00 | 0.00 | 62 | 1016.8 |
| 20260902150651 | 31 | 360 | 3.2 | 12.9 | 0.00 | 0.00 | 0.00 | 62 | 1016.8 |
| 20260902150529 | 31 | 360 | 3.2 | 12.9 | 0.00 | 0.00 | 0.00 | 62 | 1016.8 |
| 20260902150427 | 31 | 360 | 4.8 | 16.1 | 0.00 | 0.00 | 0.00 | 61 | 1016.8 |
| 20260902150327 | 32 | 360 | 4.8 | 16.1 | 0.00 | 0.00 | 0.00 | 61 | 1016.9 |
| 20260902150228 | 31 | 360 | 6.4 | 16.1 | 0.00 | 0.00 | 0.00 | 61 | 1016.8 |
| 20260902150129 | 31 | 360 | 6.4 | 16.1 | 0.00 | 0.00 | 0.00 | 61 | 1016.8 |
| 20260902150029 | 31 | 360 | 6.4 | 16.1 | 0.00 | 0.00 | 0.00 | 61 | 1016.8 |
| 20260902145934 | 31 | 360 | 4.8 | 16.1 | 0.00 | 0.00 | 0.00 | 62 | 1016.8 |
| 20260902145835 | 31 | 360 | 4.8 | 16.1 | 0.00 | 0.00 | 0.00 | 62 | 1016.9 |
| 20260902145735 | 31 | 360 | 4.8 | 16.1 | 0.00 | 0.00 | 0.00 | 62 | 1016.8 |
| 20260902145635 | 31 | 360 | 6.4 | 16.1 | 0.00 | 0.00 | 0.00 | 63 | 1016.9 |
| 20260902145534 | 31 | 360 | 4.8 | 16.1 | 0.00 | 0.00 | 0.00 | 63 | 1016.8 |
| 20260902145424 | 31 | 360 | 4.8 | 16.1 | 0.00 | 0.00 | 0.00 | 63 | 1016.9 |
| 20260902145328 | 31 | 360 | 4.8 | 16.1 | 0.00 | 0.00 | 0.00 | 63 | 1016.8 |
| 20260902145229 | 31 | 360 | 4.8 | 16.1 | 0.00 | 0.00 | 0.00 | 63 | 1016.9 |
| 20260902145128 | 31 | 360 | 6.4 | 16.1 | 0.00 | 0.00 | 0.00 | 63 | 1016.9 |
| 20260902145029 | 31 | 360 | 6.4 | 16.1 | 0.00 | 0.00 | 0.00 | 63 | 1016.8 |
| 20260902144930 | 31 | 360 | 6.4 | 16.1 | 0.00 | 0.00 | 0.00 | 63 | 1016.9 |
| 20260902144830 | 31 | 360 | 6.4 | 16.1 | 0.00 | 0.00 | 0.00 | 63 | 1016.9 |
| 20260902144731 | 31 | 360 | 6.4 | 16.1 | 0.00 | 0.00 | 0.00 | 63 | 1016.9 |
| 20260902144617 | 31 | 360 | 6.4 | 16.1 | 0.00 | 0.00 | 0.00 | 63 | 1016.9 |
| 20260902144516 | 31 | 360 | 8.0 | 16.1 | 0.00 | 0.00 | 0.00 | 64 | 1016.9 |
| 20260902144417 | 31 | 360 | 8.0 | 16.1 | 0.00 | 0.00 | 0.00 | 63 | 1016.9 |
| 20260902144318 | 31 | 360 | 8.0 | 16.1 | 0.00 | 0.00 | 0.00 | 63 | 1016.9 |
| 20260902144218 | 31 | 360 | 6.4 | 16.1 | 0.00 | 0.00 | 0.00 | 63 | 1016.9 |
| 20260902144118 | 31 | 360 | 6.4 | 16.1 | 0.00 | 0.00 | 0.00 | 63 | 1016.9 |
| 20260902144023 | 31 | 360 | 6.4 | 12.9 | 0.00 | 0.00 | 0.00 | 63 | 1016.9 |
| 20260902143923 | 31 | 360 | 4.8 | 12.9 | 0.00 | 0.00 | 0.00 | 63 | 1016.9 |
| 20260902143826 | 31 | 360 | 4.8 | 12.9 | 0.00 | 0.00 | 0.00 | 64 | 1016.9 |
| 20260902143744 | 31 | 360 | 4.8 | 12.9 | 0.00 | 0.00 | 0.00 | 65 | 1016.9 |
| 20260902143642 | 31 | 360 | 3.2 | 12.9 | 0.00 | 0.00 | 0.00 | 66 | 1016.9 |
| 20260902143542 | 31 | 360 | 1.6 | 9.7 | 0.00 | 0.00 | 0.00 | 67 | 1016.9 |
| 20260902143441 | 31 | 360 | 1.6 | 6.4 | 0.00 | 0.00 | 0.00 | 67 | 1016.9 |
| 20260902143342 | 31 | 360 | 3.2 | 6.4 | 0.00 | 0.00 | 0.00 | 67 | 1017.0 |
| 20260902143242 | 31 | 360 | 3.2 | 6.4 | 0.00 | 0.00 | 0.00 | 67 | 1017.0 |
| 20260902143125 | 31 | 360 | 3.2 | 6.4 | 0.00 | 0.00 | 0.00 | 66 | 1017.0 |
| 20260902143025 | 31 | 360 | 3.2 | 6.4 | 0.00 | 0.00 | 0.00 | 66 | 1017.0 |
| 20260902142926 | 31 | 322 | 3.2 | 6.4 | 0.00 | 0.00 | 0.00 | 67 | 1017.0 |
| 20260902142828 | 31 | 323 | 3.2 | 6.4 | 0.00 | 0.00 | 0.00 | 67 | 1017.0 |
| 20260902142728 | 31 | 360 | 1.6 | 6.4 | 0.00 | 0.00 | 0.00 | 67 | 1016.9 |
| 20260902142648 | 31 | 295 | 1.6 | 6.4 | 0.00 | 0.00 | 0.00 | 69 | 1017.0 |
| 20260902142527 | 30 | 360 | 1.6 | 6.4 | 0.00 | 0.00 | 0.00 | 69 | 1017.0 |
| 20260902142449 | 30 | 360 | 1.6 | 6.4 | 0.00 | 0.00 | 0.00 | 69 | 1017.0 |
| 20260902142331 | 30 | 360 | 1.6 | 6.4 | 0.00 | 0.00 | 0.00 | 70 | 1017.0 |
| 20260902142231 | 30 | 360 | 3.2 | 6.4 | 0.00 | 0.00 | 0.00 | 70 | 1017.0 |
| 20260902142131 | 30 | 360 | 3.2 | 6.4 | 0.00 | 0.00 | 0.00 | 69 | 1017.0 |
| 20260902142052 | 30 | 360 | 3.2 | 4.8 | 0.00 | 0.00 | 0.00 | 69 | 1017.1 |
| 20260902141951 | 30 | 360 | 4.8 | 4.8 | 0.00 | 0.00 | 0.00 | 69 | 1017.1 |
| 20260902141830 | 30 | 290 | 3.2 | 4.8 | 0.00 | 0.00 | 0.00 | 70 | 1017.0 |
| 20260902141730 | 30 | 360 | 3.2 | 4.8 | 0.00 | 0.00 | 0.00 | 72 | 1017.0 |
| 20260902141631 | 29 | 360 | 1.6 | 4.8 | 0.00 | 0.00 | 0.00 | 72 | 1017.0 |
| 20260902141535 | 29 | 360 | 1.6 | 4.8 | 0.00 | 0.00 | 0.00 | 72 | 1017.1 |
| 20260902141436 | 29 | 360 | 1.6 | 4.8 | 0.00 | 0.00 | 0.00 | 72 | 1017.0 |
| 20260902141335 | 28 | 360 | 1.6 | 4.8 | 0.00 | 0.00 | 0.00 | 72 | 1017.1 |
| 20260902141236 | 28 | 360 | 3.2 | 4.8 | 0.00 | 0.00 | 0.00 | 72 | 1017.0 |
| 20260902141135 | 28 | 360 | 1.6 | 4.8 | 0.00 | 0.00 | 0.00 | 72 | 1017.1 |
| 20260902141035 | 28 | 171 | 1.6 | 6.4 | 0.00 | 0.00 | 0.00 | 72 | 1017.0 |
| 20260902140936 | 28 | 360 | 1.6 | 4.8 | 0.00 | 0.00 | 0.00 | 72 | 1017.0 |
| 20260902140820 | 28 | 171 | 3.2 | 4.8 | 0.00 | 0.00 | 0.00 | 72 | 1017.1 |
| 20260902140720 | 28 | 360 | 3.2 | 4.8 | 0.00 | 0.00 | 0.00 | 72 | 1017.0 |
| 20260902140621 | 28 | 360 | 3.2 | 4.8 | 0.00 | 0.00 | 0.00 | 72 | 1017.0 |
| 20260902140542 | 28 | 360 | 1.6 | 4.8 | 0.00 | 0.00 | 0.00 | 73 | 1017.0 |
| 20260902140420 | 28 | 360 | 1.6 | 4.8 | 0.00 | 0.00 | 0.00 | 73 | 1017.1 |
| 20260902140321 | 28 | 360 | 1.6 | 4.8 | 0.00 | 0.00 | 0.00 | 73 | 1017.0 |
| 20260902140221 | 28 | 171 | 1.6 | 4.8 | 0.00 | 0.00 | 0.00 | 73 | 1017.1 |
| 20260902140126 | 27 | 171 | 1.6 | 4.8 | 0.00 | 0.00 | 0.00 | 74 | 1017.0 |
| 20260902140025 | 27 | 360 | 1.6 | 4.8 | 0.00 | 0.00 | 0.00 | 74 | 1017.1 |
| 20260902135926 | 27 | 170 | 0.0 | 3.2 | 0.00 | 0.00 | 0.00 | 74 | 1017.0 |
| 20260902135828 | 27 | 170 | 0.0 | 3.2 | 0.00 | 0.00 | 0.00 | 74 | 1017.1 |
| 20260902135728 | 27 | 171 | 0.0 | 3.2 | 0.00 | 0.00 | 0.00 | 75 | 1017.1 |
| 20260902135628 | 27 | 170 | 0.0 | 3.2 | 0.00 | 0.00 | 0.00 | 74 | 1017.1 |
| 20260902135529 | 27 | 170 | 0.0 | 3.2 | 0.00 | 0.00 | 0.00 | 75 | 1017.0 |
| 20260902135433 | 27 | 170 | 0.0 | 0.0 | 0.00 | 0.00 | 0.00 | 75 | 1017.0 |
| 20260902135354 | 27 | 170 | 0.0 | 0.0 | 0.00 | 0.00 | 0.00 | 76 | 1017.0 |
| 20260902135254 | 27 | 170 | 0.0 | 0.0 | 0.00 | 0.00 | 0.00 | 76 | 1017.0 |
| 20260902135133 | 27 | 170 | 0.0 | 0.0 | 0.00 | 0.00 | 0.00 | 76 | 1017.0 |
| 20260902135033 | 27 | 170 | 0.0 | 0.0 | 0.00 | 0.00 | 0.00 | 76 | 1017.0 |
| 20260902134934 | 27 | 170 | 0.0 | 0.0 | 0.00 | 0.00 | 0.00 | 76 | 1017.0 |
| 20260902134834 | 27 | 170 | 0.0 | 0.0 | 0.00 | 0.00 | 0.00 | 77 | 1016.9 |
| 20260902134719 | 27 | 170 | 0.0 | 0.0 | 0.00 | 0.00 | 0.00 | 77 | 1016.9 |
| 20260902134619 | 27 | 170 | 0.0 | 0.0 | 0.00 | 0.00 | 0.00 | 77 | 1016.9 |
| 20260902134520 | 27 | 170 | 0.0 | 0.0 | 0.00 | 0.00 | 0.00 | 77 | 1017.0 |
| 20260902134420 | 26 | 170 | 0.0 | 0.0 | 0.00 | 0.00 | 0.00 | 77 | 1016.9 |
| 20260902134321 | 26 | 170 | 0.0 | 0.0 | 0.00 | 0.00 | 0.00 | 77 | 1016.9 |
| 20260902134221 | 26 | 170 | 0.0 | 0.0 | 0.00 | 0.00 | 0.00 | 77 | 1016.9 |
| 20260902134125 | 26 | 170 | 0.0 | 0.0 | 0.00 | 0.00 | 0.00 | 77 | 1016.9 |
| 20260902134027 | 26 | 170 | 0.0 | 0.0 | 0.00 | 0.00 | 0.00 | 77 | 1016.8 |
| 20260902133948 | 26 | 360 | 0.0 | 0.0 | 0.00 | 0.00 | 0.00 | 77 | 1016.9 |
| 20260902133827 | 26 | 360 | 0.0 | 0.0 | 0.00 | 0.00 | 0.00 | 77 | 1016.9 |
| 20260902133728 | 26 | 170 | 0.0 | 0.0 | 0.00 | 0.00 | 0.00 | 77 | 1016.9 |
| 20260902133629 | 26 | 170 | 0.0 | 0.0 | 0.00 | 0.00 | 0.00 | 77 | 1016.9 |
| 20260902133529 | 26 | 171 | 0.0 | 0.0 | 0.00 | 0.00 | 0.00 | 77 | 1016.8 |
| 20260902133430 | 26 | 171 | 0.0 | 0.0 | 0.00 | 0.00 | 0.00 | 78 | 1016.8 |
| 20260902133334 | 26 | 170 | 0.0 | 0.0 | 0.00 | 0.00 | 0.00 | 77 | 1016.8 |
| 20260902133235 | 26 | 360 | 0.0 | 0.0 | 0.00 | 0.00 | 0.00 | 77 | 1016.8 |
| 20260902133135 | 26 | 360 | 0.0 | 0.0 | 0.00 | 0.00 | 0.00 | 77 | 1016.8 |
| 20260902133016 | 26 | 171 | 0.0 | 3.2 | 0.00 | 0.00 | 0.00 | 78 | 1016.8 |
| 20260902132917 | 26 | 171 | 0.0 | 3.2 | 0.00 | 0.00 | 0.00 | 78 | 1016.8 |
| 20260902132838 | 26 | 170 | 0.0 | 3.2 | 0.00 | 0.00 | 0.00 | 77 | 1016.8 |
| 20260902132721 | 26 | 170 | 0.0 | 3.2 | 0.00 | 0.00 | 0.00 | 77 | 1016.8 |
| 20260902132620 | 26 | 170 | 0.0 | 3.2 | 0.00 | 0.00 | 0.00 | 77 | 1016.8 |
| 20260902132521 | 26 | 360 | 0.0 | 3.2 | 0.00 | 0.00 | 0.00 | 77 | 1016.8 |
| 20260902132442 | 26 | 360 | 0.0 | 3.2 | 0.00 | 0.00 | 0.00 | 77 | 1016.8 |
| 20260902132322 | 26 | 171 | 1.6 | 3.2 | 0.00 | 0.00 | 0.00 | 77 | 1016.8 |
| 20260902132222 | 26 | 171 | 1.6 | 3.2 | 0.00 | 0.00 | 0.00 | 77 | 1016.8 |
| 20260902132124 | 26 | 171 | 1.6 | 3.2 | 0.00 | 0.00 | 0.00 | 77 | 1016.7 |
| 20260902132028 | 26 | 360 | 1.6 | 3.2 | 0.00 | 0.00 | 0.00 | 77 | 1016.8 |
| 20260902131929 | 26 | 360 | 1.6 | 3.2 | 0.00 | 0.00 | 0.00 | 77 | 1016.7 |
| 20260902131831 | 26 | 360 | 1.6 | 3.2 | 0.00 | 0.00 | 0.00 | 77 | 1016.7 |
| 20260902131729 | 26 | 360 | 1.6 | 3.2 | 0.00 | 0.00 | 0.00 | 78 | 1016.7 |
| 20260902131630 | 26 | 170 | 1.6 | 3.2 | 0.00 | 0.00 | 0.00 | 78 | 1016.6 |
| 20260902131530 | 26 | 171 | 1.6 | 3.2 | 0.00 | 0.00 | 0.00 | 78 | 1016.7 |
| 20260902131431 | 26 | 171 | 1.6 | 3.2 | 0.00 | 0.00 | 0.00 | 78 | 1016.7 |
| 20260902131335 | 26 | 170 | 1.6 | 3.2 | 0.00 | 0.00 | 0.00 | 78 | 1016.6 |
| 20260902131216 | 26 | 360 | 0.0 | 3.2 | 0.00 | 0.00 | 0.00 | 78 | 1016.6 |
| 20260902131116 | 26 | 360 | 0.0 | 3.2 | 0.00 | 0.00 | 0.00 | 78 | 1016.7 |
| 20260902131016 | 26 | 360 | 0.0 | 3.2 | 0.00 | 0.00 | 0.00 | 79 | 1016.6 |
| 20260902130917 | 26 | 360 | 1.6 | 3.2 | 0.00 | 0.00 | 0.00 | 79 | 1016.6 |
| 20260902130817 | 25 | 170 | 1.6 | 3.2 | 0.00 | 0.00 | 0.00 | 79 | 1016.6 |
| 20260902130721 | 25 | 170 | 1.6 | 3.2 | 0.00 | 0.00 | 0.00 | 79 | 1016.6 |
| 20260902130622 | 25 | 360 | 1.6 | 3.2 | 0.00 | 0.00 | 0.00 | 79 | 1016.6 |
| 20260902130522 | 25 | 360 | 1.6 | 3.2 | 0.00 | 0.00 | 0.00 | 79 | 1016.6 |
| 20260902130443 | 25 | 360 | 1.6 | 3.2 | 0.00 | 0.00 | 0.00 | 79 | 1016.6 |
| 20260902130341 | 25 | 170 | 1.6 | 3.2 | 0.00 | 0.00 | 0.00 | 79 | 1016.7 |
| 20260902130221 | 25 | 170 | 1.6 | 3.2 | 0.00 | 0.00 | 0.00 | 79 | 1016.6 |
| 20260902130122 | 25 | 170 | 1.6 | 3.2 | 0.00 | 0.00 | 0.00 | 79 | 1016.5 |
| 20260902130042 | 25 | 360 | 1.6 | 3.2 | 0.00 | 0.00 | 0.00 | 79 | 1016.6 |
| 20260902125925 | 25 | 360 | 1.6 | 3.2 | 0.00 | 0.00 | 0.00 | 79 | 1016.5 |
| 20260902125827 | 25 | 360 | 1.6 | 3.2 | 0.00 | 0.00 | 0.00 | 79 | 1016.6 |
| 20260902125726 | 25 | 360 | 1.6 | 3.2 | 0.00 | 0.00 | 0.00 | 79 | 1016.6 |
| 20260902125627 | 25 | 360 | 0.0 | 3.2 | 0.00 | 0.00 | 0.00 | 80 | 1016.5 |
| 20260902125528 | 25 | 360 | 0.0 | 1.6 | 0.00 | 0.00 | 0.00 | 80 | 1016.5 |
| 20260902125428 | 25 | 170 | 0.0 | 1.6 | 0.00 | 0.00 | 0.00 | 80 | 1016.6 |
| 20260902125329 | 25 | 360 | 0.0 | 1.6 | 0.00 | 0.00 | 0.00 | 80 | 1016.6 |
| 20260902125233 | 25 | 170 | 0.0 | 0.0 | 0.00 | 0.00 | 0.00 | 80 | 1016.5 |
| 20260902125132 | 25 | 360 | 0.0 | 0.0 | 0.00 | 0.00 | 0.00 | 80 | 1016.6 |
| 20260902125033 | 25 | 360 | 0.0 | 0.0 | 0.00 | 0.00 | 0.00 | 81 | 1016.5 |
| 20260902124953 | 25 | 170 | 0.0 | 0.0 | 0.00 | 0.00 | 0.00 | 81 | 1016.5 |
| 20260902124832 | 25 | 360 | 0.0 | 0.0 | 0.00 | 0.00 | 0.00 | 80 | 1016.5 |
| 20260902124753 | 25 | 360 | 0.0 | 0.0 | 0.00 | 0.00 | 0.00 | 80 | 1016.4 |
| 20260902124654 | 25 | 360 | 0.0 | 0.0 | 0.00 | 0.00 | 0.00 | 80 | 1016.5 |
| 20260902124533 | 25 | 360 | 0.0 | 0.0 | 0.00 | 0.00 | 0.00 | 80 | 1016.5 |
| 20260902124417 | 25 | 360 | 0.0 | 0.0 | 0.00 | 0.00 | 0.00 | 80 | 1016.4 |
| 20260902124318 | 25 | 171 | 0.0 | 0.0 | 0.00 | 0.00 | 0.00 | 80 | 1016.4 |
| 20260902124218 | 24 | 360 | 0.0 | 0.0 | 0.00 | 0.00 | 0.00 | 80 | 1016.4 |
| 20260902124120 | 24 | 360 | 0.0 | 0.0 | 0.00 | 0.00 | 0.00 | 80 | 1016.4 |
| 20260902124021 | 24 | 360 | 0.0 | 0.0 | 0.00 | 0.00 | 0.00 | 80 | 1016.4 |
| 20260902123921 | 24 | 360 | 0.0 | 0.0 | 0.00 | 0.00 | 0.00 | 80 | 1016.3 |
| 20260902123825 | 24 | 360 | 0.0 | 0.0 | 0.00 | 0.00 | 0.00 | 80 | 1016.3 |
| 20260902123725 | 24 | 360 | 0.0 | 0.0 | 0.00 | 0.00 | 0.00 | 80 | 1016.4 |
| 20260902123626 | 24 | 170 | 0.0 | 0.0 | 0.00 | 0.00 | 0.00 | 80 | 1016.3 |
| 20260902123526 | 24 | 360 | 0.0 | 0.0 | 0.00 | 0.00 | 0.00 | 80 | 1016.4 |
| 20260902123426 | 24 | 360 | 0.0 | 0.0 | 0.00 | 0.00 | 0.00 | 80 | 1016.4 |
| 20260902123327 | 24 | 360 | 0.0 | 0.0 | 0.00 | 0.00 | 0.00 | 80 | 1016.3 |
| 20260902123248 | 24 | 360 | 0.0 | 0.0 | 0.00 | 0.00 | 0.00 | 80 | 1016.4 |
| 20260902123148 | 24 | 360 | 0.0 | 0.0 | 0.00 | 0.00 | 0.00 | 80 | 1016.4 |
| 20260902123053 | 24 | 360 | 0.0 | 0.0 | 0.00 | 0.00 | 0.00 | 81 | 1016.3 |
| 20260902122932 | 24 | 360 | 0.0 | 0.0 | 0.00 | 0.00 | 0.00 | 81 | 1016.3 |
| 20260902122834 | 24 | 360 | 0.0 | 0.0 | 0.00 | 0.00 | 0.00 | 81 | 1016.2 |
| 20260902122734 | 24 | 360 | 0.0 | 0.0 | 0.00 | 0.00 | 0.00 | 81 | 1016.1 |
| 20260902122635 | 24 | 170 | 0.0 | 0.0 | 0.00 | 0.00 | 0.00 | 80 | 1016.2 |
| 20260902122516 | 24 | 170 | 0.0 | 0.0 | 0.00 | 0.00 | 0.00 | 80 | 1016.2 |
| 20260902122419 | 24 | 170 | 0.0 | 0.0 | 0.00 | 0.00 | 0.00 | 80 | 1016.2 |
| 20260902122321 | 24 | 170 | 0.0 | 0.0 | 0.00 | 0.00 | 0.00 | 80 | 1016.2 |
| 20260902122242 | 24 | 170 | 0.0 | 0.0 | 0.00 | 0.00 | 0.00 | 80 | 1016.2 |
| 20260902122121 | 24 | 170 | 0.0 | 0.0 | 0.00 | 0.00 | 0.00 | 80 | 1016.2 |
| 20260902122021 | 24 | 170 | 0.0 | 0.0 | 0.00 | 0.00 | 0.00 | 80 | 1016.2 |
| 20260902121922 | 24 | 170 | 0.0 | 0.0 | 0.00 | 0.00 | 0.00 | 80 | 1016.2 |
| 20260902121823 | 24 | 170 | 0.0 | 1.6 | 0.00 | 0.00 | 0.00 | 80 | 1016.1 |
| 20260902121728 | 24 | 170 | 0.0 | 1.6 | 0.00 | 0.00 | 0.00 | 80 | 1016.1 |
| 20260902121628 | 24 | 170 | 0.0 | 1.6 | 0.00 | 0.00 | 0.00 | 80 | 1016.1 |
| 20260902121528 | 24 | 170 | 0.0 | 1.6 | 0.00 | 0.00 | 0.00 | 80 | 1016.1 |
| 20260902121449 | 24 | 170 | 0.0 | 3.2 | 0.00 | 0.00 | 0.00 | 80 | 1016.1 |
| 20260902121329 | 24 | 170 | 0.0 | 3.2 | 0.00 | 0.00 | 0.00 | 80 | 1016.1 |
| 20260902121230 | 24 | 170 | 0.0 | 3.2 | 0.00 | 0.00 | 0.00 | 80 | 1016.1 |
| 20260902121131 | 24 | 170 | 0.0 | 3.2 | 0.00 | 0.00 | 0.00 | 80 | 1016.2 |
| 20260902121035 | 24 | 170 | 0.0 | 3.2 | 0.00 | 0.00 | 0.00 | 80 | 1016.1 |
| 20260902120936 | 24 | 360 | 0.0 | 3.2 | 0.00 | 0.00 | 0.00 | 80 | 1016.1 |
| 20260902120816 | 24 | 360 | 1.6 | 3.2 | 0.00 | 0.00 | 0.00 | 80 | 1016.1 |
| 20260902120716 | 24 | 360 | 1.6 | 3.2 | 0.00 | 0.00 | 0.00 | 80 | 1016.1 |
| 20260902120637 | 24 | 360 | 1.6 | 3.2 | 0.00 | 0.00 | 0.00 | 80 | 1016.1 |
| 20260902120517 | 24 | 360 | 0.0 | 3.2 | 0.00 | 0.00 | 0.00 | 80 | 1016.0 |
| 20260902120417 | 24 | 360 | 0.0 | 1.6 | 0.00 | 0.00 | 0.00 | 80 | 1016.1 |
| 20260902120322 | 24 | 360 | 0.0 | 0.0 | 0.00 | 0.00 | 0.00 | 80 | 1016.0 |
| 20260902120223 | 24 | 360 | 0.0 | 0.0 | 0.00 | 0.00 | 0.00 | 80 | 1016.1 |
| 20260902120123 | 24 | 170 | 0.0 | 0.0 | 0.00 | 0.00 | 0.00 | 80 | 1016.1 |
| 20260902120025 | 24 | 170 | 0.0 | 0.0 | 0.00 | 0.00 | 0.00 | 80 | 1016.1 |
| 20260902115926 | 24 | 170 | 0.0 | 0.0 | 0.00 | 0.00 | 0.00 | 81 | 1016.1 |
| 20260902115826 | 24 | 170 | 0.0 | 0.0 | 0.00 | 0.00 | 0.00 | 81 | 1016.1 |
| 20260902115730 | 24 | 170 | 0.0 | 0.0 | 0.00 | 0.00 | 0.00 | 81 | 1016.1 |
| 20260902115631 | 24 | 169 | 0.0 | 0.0 | 0.00 | 0.00 | 0.00 | 81 | 1016.1 |
| 20260902115530 | 24 | 360 | 0.0 | 0.0 | 0.00 | 0.00 | 0.00 | 81 | 1016.0 |
| 20260902115431 | 24 | 170 | 0.0 | 0.0 | 0.00 | 0.00 | 0.00 | 81 | 1016.1 |
| 20260902115332 | 24 | 360 | 0.0 | 0.0 | 0.00 | 0.00 | 0.00 | 81 | 1016.0 |
| 20260902115233 | 24 | 169 | 0.0 | 0.0 | 0.00 | 0.00 | 0.00 | 81 | 1016.1 |
| 20260902115134 | 24 | 360 | 0.0 | 0.0 | 0.00 | 0.00 | 0.00 | 81 | 1016.0 |
| 20260902115019 | 24 | 360 | 0.0 | 1.6 | 0.00 | 0.00 | 0.00 | 81 | 1016.1 |
| 20260902114920 | 24 | 360 | 0.0 | 1.6 | 0.00 | 0.00 | 0.00 | 81 | 1016.0 |
| 20260902114822 | 24 | 360 | 0.0 | 1.6 | 0.00 | 0.00 | 0.00 | 81 | 1016.0 |
| 20260902114723 | 24 | 360 | 0.0 | 1.6 | 0.00 | 0.00 | 0.00 | 81 | 1016.0 |
| 20260902114621 | 24 | 360 | 0.0 | 1.6 | 0.00 | 0.00 | 0.00 | 81 | 1016.1 |
| 20260902114542 | 24 | 360 | 0.0 | 1.6 | 0.00 | 0.00 | 0.00 | 81 | 1016.0 |
| 20260902114421 | 24 | 360 | 0.0 | 1.6 | 0.00 | 0.00 | 0.00 | 81 | 1016.0 |
| 20260902114325 | 24 | 161 | 0.0 | 1.6 | 0.00 | 0.00 | 0.00 | 81 | 1016.0 |
| 20260902114226 | 24 | 161 | 0.0 | 3.2 | 0.00 | 0.00 | 0.00 | 81 | 1015.9 |
| 20260902114126 | 24 | 360 | 0.0 | 3.2 | 0.00 | 0.00 | 0.00 | 81 | 1016.0 |
| 20260902114028 | 24 | 360 | 0.0 | 3.2 | 0.00 | 0.00 | 0.00 | 81 | 1015.9 |
| 20260902113929 | 24 | 360 | 0.0 | 3.2 | 0.00 | 0.00 | 0.00 | 81 | 1016.0 |
| 20260902113829 | 24 | 360 | 0.0 | 3.2 | 0.00 | 0.00 | 0.00 | 81 | 1016.0 |
| 20260902113729 | 24 | 161 | 0.0 | 3.2 | 0.00 | 0.00 | 0.00 | 81 | 1016.1 |
| 20260902113635 | 24 | 161 | 0.0 | 3.2 | 0.00 | 0.00 | 0.00 | 81 | 1016.1 |
| 20260902113535 | 24 | 161 | 1.6 | 3.2 | 0.00 | 0.00 | 0.00 | 81 | 1016.0 |
| 20260902113416 | 24 | 360 | 1.6 | 3.2 | 0.00 | 0.00 | 0.00 | 81 | 1016.0 |
| 20260902113316 | 24 | 360 | 0.0 | 3.2 | 0.00 | 0.00 | 0.00 | 81 | 1016.1 |
| 20260902113217 | 24 | 360 | 0.0 | 3.2 | 0.00 | 0.00 | 0.00 | 81 | 1016.0 |
| 20260902113117 | 24 | 360 | 0.0 | 3.2 | 0.00 | 0.00 | 0.00 | 80 | 1016.1 |
| 20260902113022 | 24 | 360 | 0.0 | 3.2 | 0.00 | 0.00 | 0.00 | 80 | 1016.0 |
| 20260902112922 | 24 | 360 | 0.0 | 3.2 | 0.00 | 0.00 | 0.00 | 80 | 1016.0 |
| 20260902112824 | 24 | 360 | 1.6 | 3.2 | 0.00 | 0.00 | 0.00 | 80 | 1016.0 |
| 20260902112723 | 24 | 360 | 1.6 | 3.2 | 0.00 | 0.00 | 0.00 | 80 | 1016.0 |
| 20260902112624 | 24 | 360 | 0.0 | 3.2 | 0.00 | 0.00 | 0.00 | 80 | 1016.0 |
| 20260902112524 | 24 | 360 | 0.0 | 0.0 | 0.00 | 0.00 | 0.00 | 80 | 1016.0 |
| 20260902112425 | 24 | 161 | 0.0 | 0.0 | 0.00 | 0.00 | 0.00 | 80 | 1016.0 |
| 20260902112329 | 24 | 161 | 0.0 | 0.0 | 0.00 | 0.00 | 0.00 | 80 | 1016.0 |
| 20260902112231 | 24 | 161 | 0.0 | 0.0 | 0.00 | 0.00 | 0.00 | 80 | 1016.0 |
| 20260902112132 | 24 | 161 | 0.0 | 0.0 | 0.00 | 0.00 | 0.00 | 80 | 1016.0 |
| 20260902112032 | 24 | 161 | 0.0 | 1.6 | 0.00 | 0.00 | 0.00 | 80 | 1016.1 |
| 20260902111933 | 24 | 161 | 0.0 | 1.6 | 0.00 | 0.00 | 0.00 | 80 | 1016.1 |
| 20260902111834 | 24 | 161 | 0.0 | 1.6 | 0.00 | 0.00 | 0.00 | 80 | 1016.0 |
| 20260902111719 | 24 | 161 | 0.0 | 1.6 | 0.00 | 0.00 | 0.00 | 80 | 1016.1 |
| 20260902111620 | 24 | 161 | 0.0 | 1.6 | 0.00 | 0.00 | 0.00 | 80 | 1016.0 |
| 20260902111520 | 24 | 161 | 0.0 | 1.6 | 0.00 | 0.00 | 0.00 | 80 | 1016.0 |
| 20260902111420 | 24 | 161 | 0.0 | 1.6 | 0.00 | 0.00 | 0.00 | 80 | 1016.0 |
| 20260902111321 | 24 | 360 | 0.0 | 1.6 | 0.00 | 0.00 | 0.00 | 80 | 1016.0 |
| 20260902111222 | 24 | 360 | 0.0 | 1.6 | 0.00 | 0.00 | 0.00 | 80 | 1016.0 |
| 20260902111143 | 24 | 161 | 0.0 | 1.6 | 0.00 | 0.00 | 0.00 | 80 | 1016.0 |
| 20260902111027 | 24 | 161 | 0.0 | 1.6 | 0.00 | 0.00 | 0.00 | 80 | 1015.9 |
| 20260902110948 | 24 | 161 | 0.0 | 1.6 | 0.00 | 0.00 | 0.00 | 80 | 1016.0 |
| 20260902110827 | 24 | 360 | 0.0 | 1.6 | 0.00 | 0.00 | 0.00 | 80 | 1016.0 |
| 20260902110727 | 24 | 360 | 0.0 | 1.6 | 0.00 | 0.00 | 0.00 | 80 | 1015.9 |
| 20260902110627 | 24 | 360 | 0.0 | 1.6 | 0.00 | 0.00 | 0.00 | 80 | 1015.9 |
| 20260902110527 | 24 | 360 | 0.0 | 1.6 | 0.00 | 0.00 | 0.00 | 80 | 1015.9 |
| 20260902110427 | 24 | 161 | 0.0 | 0.0 | 0.00 | 0.00 | 0.00 | 80 | 1016.0 |
| 20260902110348 | 24 | 161 | 0.0 | 0.0 | 0.00 | 0.00 | 0.00 | 80 | 1015.9 |
| 20260902110231 | 24 | 161 | 0.0 | 0.0 | 0.00 | 0.00 | 0.00 | 79 | 1015.9 |
| 20260902110131 | 24 | 161 | 0.0 | 0.0 | 0.00 | 0.00 | 0.00 | 79 | 1016.0 |
| 20260902110031 | 24 | 161 | 0.0 | 0.0 | 0.00 | 0.00 | 0.00 | 79 | 1016.0 |
| 20260902105930 | 24 | 161 | 0.0 | 0.0 | 0.00 | 0.00 | 0.00 | 79 | 1015.9 |
| 20260902105831 | 24 | 161 | 0.0 | 0.0 | 0.00 | 0.00 | 0.00 | 79 | 1016.0 |
| 20260902105730 | 25 | 161 | 0.0 | 0.0 | 0.00 | 0.00 | 0.00 | 79 | 1015.9 |
| 20260902105651 | 25 | 161 | 0.0 | 0.0 | 0.00 | 0.00 | 0.00 | 79 | 1015.9 |
| 20260902105530 | 25 | 161 | 0.0 | 0.0 | 0.00 | 0.00 | 0.00 | 79 | 1015.9 |
| 20260902105435 | 25 | 161 | 0.0 | 0.0 | 0.00 | 0.00 | 0.00 | 79 | 1015.9 |
| 20260902105316 | 25 | 161 | 0.0 | 0.0 | 0.00 | 0.00 | 0.00 | 79 | 1015.9 |
| 20260902105217 | 25 | 161 | 0.0 | 0.0 | 0.00 | 0.00 | 0.00 | 79 | 1015.9 |
| 20260902105117 | 25 | 161 | 0.0 | 1.6 | 0.00 | 0.00 | 0.00 | 79 | 1015.9 |
| 20260902105018 | 25 | 161 | 0.0 | 3.2 | 0.00 | 0.00 | 0.00 | 79 | 1015.9 |
| 20260902104918 | 25 | 161 | 0.0 | 3.2 | 0.00 | 0.00 | 0.00 | 79 | 1015.9 |
| 20260902104823 | 25 | 161 | 0.0 | 3.2 | 0.00 | 0.00 | 0.00 | 79 | 1016.0 |
| 20260902104723 | 25 | 360 | 0.0 | 3.2 | 0.00 | 0.00 | 0.00 | 79 | 1016.0 |
| 20260902104623 | 25 | 360 | 0.0 | 3.2 | 0.00 | 0.00 | 0.00 | 79 | 1016.0 |
| 20260902104542 | 25 | 161 | 0.0 | 3.2 | 0.00 | 0.00 | 0.00 | 79 | 1016.0 |
| 20260902104423 | 25 | 161 | 0.0 | 3.2 | 0.00 | 0.00 | 0.00 | 79 | 1016.0 |
| 20260902104323 | 25 | 161 | 1.6 | 3.2 | 0.00 | 0.00 | 0.00 | 79 | 1016.0 |
| 20260902104244 | 25 | 161 | 1.6 | 3.2 | 0.00 | 0.00 | 0.00 | 79 | 1016.0 |
| 20260902104121 | 25 | 161 | 0.0 | 3.2 | 0.00 | 0.00 | 0.00 | 79 | 1016.0 |
| 20260902104026 | 25 | 161 | 0.0 | 0.0 | 0.00 | 0.00 | 0.00 | 79 | 1015.9 |
| 20260902103926 | 25 | 161 | 0.0 | 0.0 | 0.00 | 0.00 | 0.00 | 79 | 1015.9 |
| 20260902103827 | 25 | 161 | 0.0 | 0.0 | 0.00 | 0.00 | 0.00 | 79 | 1015.9 |
| 20260902103728 | 25 | 161 | 0.0 | 0.0 | 0.00 | 0.00 | 0.00 | 79 | 1015.9 |
| 20260902103629 | 25 | 161 | 0.0 | 0.0 | 0.00 | 0.00 | 0.00 | 79 | 1015.9 |
| 20260902103531 | 25 | 161 | 0.0 | 0.0 | 0.00 | 0.00 | 0.00 | 79 | 1016.0 |
| 20260902103416 | 25 | 161 | 0.0 | 0.0 | 0.00 | 0.00 | 0.00 | 79 | 1015.9 |
| 20260902103317 | 25 | 161 | 0.0 | 0.0 | 0.00 | 0.00 | 0.00 | 79 | 1015.9 |
| 20260902103217 | 25 | 161 | 0.0 | 0.0 | 0.00 | 0.00 | 0.00 | 79 | 1015.9 |
| 20260902103119 | 25 | 161 | 0.0 | 0.0 | 0.00 | 0.00 | 0.00 | 79 | 1015.9 |
| 20260902103020 | 25 | 161 | 0.0 | 0.0 | 0.00 | 0.00 | 0.00 | 79 | 1015.9 |
| 20260902102920 | 25 | 161 | 0.0 | 0.0 | 0.00 | 0.00 | 0.00 | 79 | 1015.9 |
| 20260902102822 | 25 | 161 | 0.0 | 0.0 | 0.00 | 0.00 | 0.00 | 79 | 1015.9 |
| 20260902102725 | 25 | 161 | 0.0 | 0.0 | 0.00 | 0.00 | 0.00 | 79 | 1016.0 |
| 20260902102626 | 25 | 161 | 0.0 | 0.0 | 0.00 | 0.00 | 0.00 | 79 | 1015.9 |
| 20260902102528 | 25 | 161 | 0.0 | 0.0 | 0.00 | 0.00 | 0.00 | 79 | 1015.9 |
| 20260902102448 | 25 | 360 | 0.0 | 0.0 | 0.00 | 0.00 | 0.00 | 79 | 1015.9 |
| 20260902102327 | 25 | 161 | 0.0 | 0.0 | 0.00 | 0.00 | 0.00 | 79 | 1015.9 |
| 20260902102227 | 25 | 161 | 0.0 | 0.0 | 0.00 | 0.00 | 0.00 | 78 | 1015.9 |
| 20260902102128 | 25 | 161 | 0.0 | 0.0 | 0.00 | 0.00 | 0.00 | 78 | 1016.0 |
| 20260902102032 | 25 | 161 | 0.0 | 0.0 | 0.00 | 0.00 | 0.00 | 78 | 1016.0 |
| 20260902101933 | 25 | 360 | 0.0 | 1.6 | 0.00 | 0.00 | 0.00 | 78 | 1016.0 |
| 20260902101854 | 25 | 360 | 0.0 | 1.6 | 0.00 | 0.00 | 0.00 | 78 | 1016.0 |
| 20260902101753 | 25 | 360 | 0.0 | 1.6 | 0.00 | 0.00 | 0.00 | 78 | 1016.1 |
| 20260902101633 | 25 | 360 | 0.0 | 1.6 | 0.00 | 0.00 | 0.00 | 78 | 1016.0 |
| 20260902101532 | 25 | 161 | 0.0 | 1.6 | 0.00 | 0.00 | 0.00 | 78 | 1016.0 |
| 20260902101433 | 25 | 161 | 0.0 | 1.6 | 0.00 | 0.00 | 0.00 | 78 | 1016.0 |
| 20260902101317 | 25 | 360 | 0.0 | 1.6 | 0.00 | 0.00 | 0.00 | 78 | 1016.0 |
| 20260902101239 | 25 | 360 | 0.0 | 1.6 | 0.00 | 0.00 | 0.00 | 77 | 1016.0 |
| 20260902101118 | 25 | 360 | 0.0 | 1.6 | 0.00 | 0.00 | 0.00 | 77 | 1016.0 |
| 20260902101020 | 25 | 360 | 0.0 | 0.0 | 0.00 | 0.00 | 0.00 | 77 | 1015.9 |
| 20260902100921 | 25 | 161 | 0.0 | 0.0 | 0.00 | 0.00 | 0.00 | 77 | 1016.0 |
| 20260902100821 | 25 | 360 | 0.0 | 0.0 | 0.00 | 0.00 | 0.00 | 77 | 1015.9 |
| 20260902100722 | 25 | 360 | 0.0 | 0.0 | 0.00 | 0.00 | 0.00 | 77 | 1015.9 |
| 20260902100625 | 25 | 161 | 0.0 | 0.0 | 0.00 | 0.00 | 0.00 | 77 | 1015.8 |
| 20260902100526 | 25 | 360 | 0.0 | 0.0 | 0.00 | 0.00 | 0.00 | 77 | 1015.8 |
| 20260902100426 | 25 | 360 | 0.0 | 0.0 | 0.00 | 0.00 | 0.00 | 77 | 1015.8 |
| 20260902100326 | 25 | 360 | 0.0 | 0.0 | 0.00 | 0.00 | 0.00 | 77 | 1015.8 |
| 20260902100247 | 25 | 360 | 0.0 | 0.0 | 0.00 | 0.00 | 0.00 | 77 | 1015.8 |
| 20260902100146 | 25 | 360 | 0.0 | 0.0 | 0.00 | 0.00 | 0.00 | 77 | 1015.8 |
| 20260902100026 | 25 | 360 | 0.0 | 0.0 | 0.00 | 0.00 | 0.00 | 77 | 1015.8 |
| 20260902095930 | 25 | 360 | 0.0 | 0.0 | 0.00 | 0.00 | 0.00 | 77 | 1015.8 |
| 20260902095833 | 25 | 360 | 0.0 | 0.0 | 0.00 | 0.00 | 0.00 | 77 | 1015.8 |
| 20260902095734 | 25 | 360 | 0.0 | 0.0 | 0.00 | 0.00 | 0.00 | 77 | 1015.8 |
| 20260902095635 | 25 | 360 | 0.0 | 3.2 | 0.00 | 0.00 | 0.00 | 77 | 1015.8 |
| 20260902095555 | 25 | 360 | 0.0 | 3.2 | 0.00 | 0.00 | 0.00 | 77 | 1015.9 |
| 20260902095435 | 25 | 161 | 0.0 | 3.2 | 0.00 | 0.00 | 0.00 | 77 | 1015.8 |
| 20260902095334 | 25 | 360 | 0.0 | 3.2 | 0.00 | 0.00 | 0.00 | 77 | 1015.8 |
| 20260902095240 | 25 | 360 | 0.0 | 3.2 | 0.00 | 0.00 | 0.00 | 77 | 1015.8 |
| 20260902095116 | 25 | 360 | 0.0 | 3.2 | 0.00 | 0.00 | 0.00 | 77 | 1015.8 |
| 20260902095017 | 25 | 360 | 0.0 | 3.2 | 0.00 | 0.00 | 0.00 | 77 | 1015.8 |
| 20260902094917 | 25 | 360 | 0.0 | 3.2 | 0.00 | 0.00 | 0.00 | 77 | 1015.8 |
| 20260902094839 | 25 | 360 | 0.0 | 3.2 | 0.00 | 0.00 | 0.00 | 77 | 1015.8 |
| 20260902094717 | 25 | 161 | 0.0 | 3.2 | 0.00 | 0.00 | 0.00 | 76 | 1015.8 |
| 20260902094637 | 25 | 161 | 1.6 | 3.2 | 0.00 | 0.00 | 0.00 | 76 | 1015.8 |
| 20260902094517 | 25 | 161 | 1.6 | 3.2 | 0.00 | 0.00 | 0.00 | 76 | 1015.8 |
| 20260902094420 | 26 | 161 | 1.6 | 3.2 | 0.00 | 0.00 | 0.00 | 76 | 1015.8 |
| 20260902094321 | 26 | 161 | 1.6 | 3.2 | 0.00 | 0.00 | 0.00 | 76 | 1015.8 |
| 20260902094221 | 26 | 161 | 1.6 | 3.2 | 0.00 | 0.00 | 0.00 | 76 | 1015.8 |
| 20260902094122 | 26 | 161 | 3.2 | 3.2 | 0.00 | 0.00 | 0.00 | 76 | 1015.8 |
| 20260902094021 | 26 | 161 | 3.2 | 3.2 | 0.00 | 0.00 | 0.00 | 76 | 1015.8 |
| 20260902093921 | 26 | 161 | 3.2 | 3.2 | 0.00 | 0.00 | 0.00 | 76 | 1015.8 |
| 20260902093826 | 26 | 161 | 3.2 | 3.2 | 0.00 | 0.00 | 0.00 | 76 | 1015.8 |
| 20260902093726 | 26 | 161 | 1.6 | 3.2 | 0.00 | 0.00 | 0.00 | 76 | 1015.9 |
| 20260902093627 | 26 | 161 | 1.6 | 3.2 | 0.00 | 0.00 | 0.00 | 76 | 1015.8 |
| 20260902093527 | 26 | 161 | 1.6 | 3.2 | 0.00 | 0.00 | 0.00 | 76 | 1015.9 |
| 20260902093428 | 26 | 161 | 1.6 | 3.2 | 0.00 | 0.00 | 0.00 | 76 | 1015.8 |
| 20260902093328 | 26 | 161 | 0.0 | 4.8 | 0.00 | 0.00 | 0.00 | 76 | 1015.8 |
| 20260902093249 | 26 | 161 | 0.0 | 4.8 | 0.00 | 0.00 | 0.00 | 75 | 1015.8 |
| 20260902093132 | 26 | 161 | 1.6 | 4.8 | 0.00 | 0.00 | 0.00 | 75 | 1015.7 |
| 20260902093033 | 26 | 161 | 1.6 | 4.8 | 0.00 | 0.00 | 0.00 | 76 | 1015.8 |
| 20260902092932 | 26 | 161 | 1.6 | 4.8 | 0.00 | 0.00 | 0.00 | 76 | 1015.8 |
| 20260902092834 | 26 | 161 | 1.6 | 4.8 | 0.00 | 0.00 | 0.00 | 76 | 1015.7 |
| 20260902092733 | 26 | 161 | 3.2 | 4.8 | 0.00 | 0.00 | 0.00 | 76 | 1015.8 |
| 20260902092634 | 26 | 161 | 3.2 | 4.8 | 0.00 | 0.00 | 0.00 | 76 | 1015.7 |
| 20260902092519 | 26 | 161 | 3.2 | 4.8 | 0.00 | 0.00 | 0.00 | 76 | 1015.8 |
| 20260902092438 | 26 | 153 | 3.2 | 8.0 | 0.00 | 0.00 | 0.00 | 76 | 1015.8 |
| 20260902092318 | 26 | 360 | 3.2 | 8.0 | 0.00 | 0.00 | 0.00 | 76 | 1015.8 |
| 20260902092219 | 26 | 360 | 3.2 | 8.0 | 0.00 | 0.00 | 0.00 | 76 | 1015.8 |
| 20260902092119 | 26 | 360 | 1.6 | 8.0 | 0.00 | 0.00 | 0.00 | 76 | 1015.9 |
| 20260902092020 | 26 | 360 | 1.6 | 8.0 | 0.00 | 0.00 | 0.00 | 76 | 1015.8 |
| 20260902091921 | 26 | 360 | 1.6 | 8.0 | 0.00 | 0.00 | 0.00 | 76 | 1015.8 |
| 20260902091826 | 26 | 360 | 3.2 | 8.0 | 0.00 | 0.00 | 0.00 | 76 | 1015.9 |
| 20260902091727 | 26 | 152 | 3.2 | 8.0 | 0.00 | 0.00 | 0.00 | 75 | 1015.8 |
| 20260902091628 | 26 | 360 | 3.2 | 8.0 | 0.00 | 0.00 | 0.00 | 75 | 1015.9 |
| 20260902091528 | 26 | 360 | 1.6 | 4.8 | 0.00 | 0.00 | 0.00 | 75 | 1015.8 |
| 20260902091448 | 26 | 360 | 1.6 | 4.8 | 0.00 | 0.00 | 0.00 | 75 | 1015.8 |
| 20260902091328 | 26 | 152 | 3.2 | 4.8 | 0.00 | 0.00 | 0.00 | 76 | 1015.8 |
| 20260902091229 | 26 | 152 | 3.2 | 8.0 | 0.00 | 0.00 | 0.00 | 76 | 1015.9 |
| 20260902091150 | 26 | 360 | 3.2 | 8.0 | 0.00 | 0.00 | 0.00 | 77 | 1015.9 |
| 20260902091034 | 26 | 360 | 3.2 | 8.0 | 0.00 | 0.00 | 0.00 | 77 | 1015.9 |
| 20260902090934 | 26 | 360 | 3.2 | 8.0 | 0.00 | 0.00 | 0.00 | 76 | 1015.9 |
| 20260902090834 | 26 | 360 | 3.2 | 8.0 | 0.00 | 0.00 | 0.00 | 76 | 1015.9 |
| 20260902090734 | 26 | 152 | 3.2 | 8.0 | 0.00 | 0.00 | 0.00 | 75 | 1015.9 |
| 20260902090635 | 26 | 360 | 3.2 | 8.0 | 0.00 | 0.00 | 0.00 | 75 | 1015.9 |
| 20260902090536 | 26 | 151 | 3.2 | 8.0 | 0.00 | 0.00 | 0.00 | 75 | 1015.9 |
| 20260902090419 | 26 | 360 | 4.8 | 8.0 | 0.00 | 0.00 | 0.00 | 75 | 1016.0 |
| 20260902090320 | 26 | 152 | 3.2 | 8.0 | 0.00 | 0.00 | 0.00 | 75 | 1015.9 |
| 20260902090221 | 26 | 360 | 3.2 | 4.8 | 0.00 | 0.00 | 0.00 | 75 | 1015.9 |
| 20260902090121 | 26 | 360 | 3.2 | 4.8 | 0.00 | 0.00 | 0.00 | 75 | 1015.9 |
| 20260902090041 | 26 | 360 | 1.6 | 4.8 | 0.00 | 0.00 | 0.00 | 75 | 1015.9 |
| 20260902085941 | 26 | 360 | 1.6 | 4.8 | 0.00 | 0.00 | 0.00 | 75 | 1015.9 |
| 20260902085842 | 26 | 360 | 1.6 | 4.8 | 0.00 | 0.00 | 0.00 | 75 | 1015.9 |
| 20260902085719 | 26 | 360 | 3.2 | 4.8 | 0.00 | 0.00 | 0.00 | 75 | 1015.9 |
| 20260902085624 | 26 | 360 | 3.2 | 4.8 | 0.00 | 0.00 | 0.00 | 75 | 1015.9 |
| 20260902085544 | 26 | 360 | 3.2 | 4.8 | 0.00 | 0.00 | 0.00 | 75 | 1016.0 |
| 20260902085444 | 26 | 184 | 3.2 | 4.8 | 0.00 | 0.00 | 0.00 | 75 | 1015.9 |
| 20260902085324 | 26 | 360 | 3.2 | 4.8 | 0.00 | 0.00 | 0.00 | 75 | 1015.9 |
| 20260902085224 | 26 | 184 | 3.2 | 6.4 | 0.00 | 0.00 | 0.00 | 74 | 1015.9 |
| 20260902085124 | 26 | 360 | 3.2 | 6.4 | 0.00 | 0.00 | 0.00 | 74 | 1015.9 |
| 20260902085027 | 26 | 360 | 3.2 | 6.4 | 0.00 | 0.00 | 0.00 | 74 | 1015.9 |
| 20260902084932 | 26 | 360 | 3.2 | 6.4 | 0.00 | 0.00 | 0.00 | 74 | 1015.8 |
| 20260902084832 | 26 | 184 | 3.2 | 6.4 | 0.00 | 0.00 | 0.00 | 74 | 1015.9 |
| 20260902084733 | 26 | 360 | 1.6 | 6.4 | 0.00 | 0.00 | 0.00 | 74 | 1015.9 |
| 20260902084634 | 26 | 360 | 3.2 | 6.4 | 0.00 | 0.00 | 0.00 | 74 | 1015.9 |
| 20260902084535 | 26 | 184 | 3.2 | 6.4 | 0.00 | 0.00 | 0.00 | 74 | 1015.9 |
| 20260902084435 | 26 | 360 | 3.2 | 6.4 | 0.00 | 0.00 | 0.00 | 74 | 1015.9 |
| 20260902084320 | 26 | 360 | 3.2 | 6.4 | 0.00 | 0.00 | 0.00 | 74 | 1016.0 |
| 20260902084220 | 26 | 360 | 1.6 | 6.4 | 0.00 | 0.00 | 0.00 | 74 | 1015.9 |
| 20260902084121 | 26 | 360 | 1.6 | 12.9 | 0.00 | 0.00 | 0.00 | 74 | 1016.0 |
| 20260902084042 | 26 | 360 | 3.2 | 12.9 | 0.00 | 0.00 | 0.00 | 74 | 1015.9 |
| 20260902083922 | 26 | 360 | 3.2 | 12.9 | 0.00 | 0.00 | 0.00 | 74 | 1016.0 |
| 20260902083821 | 26 | 360 | 3.2 | 12.9 | 0.00 | 0.00 | 0.00 | 74 | 1015.9 |
| 20260902083723 | 26 | 360 | 3.2 | 12.9 | 0.00 | 0.00 | 0.00 | 74 | 1015.9 |
| 20260902083628 | 26 | 360 | 3.2 | 12.9 | 0.00 | 0.00 | 0.00 | 74 | 1015.9 |
| 20260902083549 | 26 | 360 | 1.6 | 12.9 | 0.00 | 0.00 | 0.00 | 74 | 1015.9 |
| 20260902083427 | 26 | 360 | 1.6 | 12.9 | 0.00 | 0.00 | 0.00 | 74 | 1015.9 |
| 20260902083327 | 26 | 360 | 3.2 | 12.9 | 0.00 | 0.00 | 0.00 | 73 | 1015.8 |
| 20260902083226 | 26 | 360 | 3.2 | 12.9 | 0.00 | 0.00 | 0.00 | 73 | 1015.9 |
| 20260902083126 | 26 | 360 | 3.2 | 12.9 | 0.00 | 0.00 | 0.00 | 73 | 1015.9 |
| 20260902083028 | 26 | 360 | 3.2 | 12.9 | 0.00 | 0.00 | 0.00 | 73 | 1015.8 |
| 20260902082928 | 26 | 360 | 4.8 | 12.9 | 0.00 | 0.00 | 0.00 | 73 | 1015.8 |
| 20260902082830 | 26 | 360 | 6.4 | 12.9 | 0.00 | 0.00 | 0.00 | 73 | 1015.8 |
| 20260902082734 | 26 | 360 | 4.8 | 12.9 | 0.00 | 0.00 | 0.00 | 73 | 1015.8 |
| 20260902082653 | 26 | 360 | 4.8 | 9.7 | 0.00 | 0.00 | 0.00 | 73 | 1015.8 |
| 20260902082533 | 26 | 360 | 3.2 | 9.7 | 0.00 | 0.00 | 0.00 | 73 | 1015.7 |
| 20260902082433 | 26 | 360 | 3.2 | 9.7 | 0.00 | 0.00 | 0.00 | 73 | 1015.8 |
| 20260902082334 | 26 | 360 | 3.2 | 9.7 | 0.00 | 0.00 | 0.00 | 73 | 1015.7 |
| 20260902082234 | 26 | 360 | 3.2 | 9.7 | 0.00 | 0.00 | 0.00 | 73 | 1015.8 |
| 20260902082119 | 26 | 360 | 4.8 | 9.7 | 0.00 | 0.00 | 0.00 | 73 | 1015.9 |
| 20260902082039 | 26 | 360 | 4.8 | 9.7 | 0.00 | 0.00 | 0.00 | 73 | 1015.8 |
| 20260902081919 | 26 | 360 | 4.8 | 9.7 | 0.00 | 0.00 | 0.00 | 73 | 1015.8 |
| 20260902081819 | 26 | 360 | 3.2 | 6.4 | 0.00 | 0.00 | 0.00 | 73 | 1015.8 |
| 20260902081719 | 26 | 360 | 1.6 | 6.4 | 0.00 | 0.00 | 0.00 | 73 | 1015.9 |
| 20260902081639 | 26 | 360 | 1.6 | 6.4 | 0.00 | 0.00 | 0.00 | 73 | 1015.9 |
| 20260902081519 | 26 | 360 | 3.2 | 6.4 | 0.00 | 0.00 | 0.00 | 73 | 1015.9 |
| 20260902081419 | 26 | 360 | 3.2 | 6.4 | 0.00 | 0.00 | 0.00 | 73 | 1016.0 |
| 20260902081324 | 26 | 360 | 3.2 | 6.4 | 0.00 | 0.00 | 0.00 | 73 | 1016.0 |
| 20260902081244 | 26 | 360 | 1.6 | 6.4 | 0.00 | 0.00 | 0.00 | 73 | 1015.9 |
| 20260902081124 | 26 | 360 | 1.6 | 6.4 | 0.00 | 0.00 | 0.00 | 73 | 1016.0 |
| 20260902081024 | 26 | 360 | 1.6 | 6.4 | 0.00 | 0.00 | 0.00 | 73 | 1016.0 |
| 20260902080945 | 27 | 360 | 1.6 | 6.4 | 0.00 | 0.00 | 0.00 | 72 | 1016.0 |
| 20260902080824 | 27 | 360 | 1.6 | 6.4 | 0.00 | 0.00 | 0.00 | 72 | 1016.0 |
| 20260902080725 | 27 | 360 | 3.2 | 6.4 | 0.00 | 0.00 | 0.00 | 72 | 1016.0 |
| 20260902080645 | 27 | 360 | 3.2 | 6.4 | 0.00 | 0.00 | 0.00 | 72 | 1016.0 |
| 20260902080529 | 27 | 360 | 3.2 | 6.4 | 0.00 | 0.00 | 0.00 | 72 | 1016.0 |
| 20260902080430 | 27 | 360 | 3.2 | 6.4 | 0.00 | 0.00 | 0.00 | 72 | 1016.1 |
| 20260902080350 | 27 | 360 | 1.6 | 6.4 | 0.00 | 0.00 | 0.00 | 72 | 1016.1 |
| 20260902080229 | 27 | 360 | 1.6 | 4.8 | 0.00 | 0.00 | 0.00 | 72 | 1016.0 |
| 20260902080129 | 27 | 360 | 1.6 | 4.8 | 0.00 | 0.00 | 0.00 | 72 | 1016.0 |
| 20260902080049 | 27 | 360 | 1.6 | 4.8 | 0.00 | 0.00 | 0.00 | 72 | 1016.0 |
| 20260902075929 | 27 | 360 | 1.6 | 3.2 | 0.00 | 0.00 | 0.00 | 73 | 1016.0 |
| 20260902075830 | 27 | 360 | 1.6 | 3.2 | 0.00 | 0.00 | 0.00 | 73 | 1016.1 |
| 20260902075733 | 27 | 360 | 1.6 | 6.4 | 0.00 | 0.00 | 0.00 | 73 | 1016.0 |
| 20260902075634 | 27 | 360 | 1.6 | 6.4 | 0.00 | 0.00 | 0.00 | 72 | 1016.1 |
| 20260902075554 | 27 | 360 | 1.6 | 6.4 | 0.00 | 0.00 | 0.00 | 72 | 1016.0 |
| 20260902075433 | 27 | 175 | 1.6 | 6.4 | 0.00 | 0.00 | 0.00 | 72 | 1016.0 |
| 20260902075333 | 27 | 175 | 1.6 | 6.4 | 0.00 | 0.00 | 0.00 | 72 | 1016.0 |
| 20260902075234 | 27 | 360 | 1.6 | 6.4 | 0.00 | 0.00 | 0.00 | 72 | 1016.0 |
| 20260902075116 | 27 | 175 | 3.2 | 6.4 | 0.00 | 0.00 | 0.00 | 72 | 1016.0 |
| 20260902075040 | 27 | 360 | 3.2 | 6.4 | 0.00 | 0.00 | 0.00 | 72 | 1015.9 |
| 20260902074920 | 27 | 360 | 3.2 | 9.7 | 0.00 | 0.00 | 0.00 | 72 | 1016.0 |
| 20260902074820 | 27 | 360 | 3.2 | 9.7 | 0.00 | 0.00 | 0.00 | 72 | 1016.0 |
| 20260902074721 | 27 | 360 | 3.2 | 9.7 | 0.00 | 0.00 | 0.00 | 72 | 1016.0 |
| 20260902074620 | 27 | 175 | 1.6 | 9.7 | 0.00 | 0.00 | 0.00 | 72 | 1016.0 |
| 20260902074520 | 27 | 175 | 1.6 | 9.7 | 0.00 | 0.00 | 0.00 | 72 | 1016.0 |
| 20260902074422 | 27 | 360 | 1.6 | 9.7 | 0.00 | 0.00 | 0.00 | 72 | 1016.0 |
| 20260902074343 | 27 | 360 | 3.2 | 9.7 | 0.00 | 0.00 | 0.00 | 72 | 1016.0 |
| 20260902074227 | 27 | 360 | 3.2 | 9.7 | 0.00 | 0.00 | 0.00 | 72 | 1016.0 |
| 20260902074148 | 27 | 360 | 4.8 | 9.7 | 0.00 | 0.00 | 0.00 | 72 | 1016.0 |
| 20260902074027 | 27 | 360 | 3.2 | 8.0 | 0.00 | 0.00 | 0.00 | 72 | 1016.0 |
| 20260902073927 | 27 | 360 | 3.2 | 8.0 | 0.00 | 0.00 | 0.00 | 72 | 1015.9 |
| 20260902073827 | 27 | 360 | 3.2 | 8.0 | 0.00 | 0.00 | 0.00 | 72 | 1016.0 |
| 20260902073728 | 27 | 360 | 3.2 | 8.0 | 0.00 | 0.00 | 0.00 | 72 | 1016.0 |
| 20260902073649 | 27 | 360 | 3.2 | 8.0 | 0.00 | 0.00 | 0.00 | 72 | 1016.0 |
| 20260902073528 | 27 | 360 | 3.2 | 8.0 | 0.00 | 0.00 | 0.00 | 72 | 1016.0 |
| 20260902073452 | 27 | 360 | 3.2 | 12.9 | 0.00 | 0.00 | 0.00 | 72 | 1016.0 |
| 20260902073332 | 27 | 360 | 4.8 | 12.9 | 0.00 | 0.00 | 0.00 | 72 | 1016.0 |
| 20260902073234 | 27 | 360 | 4.8 | 12.9 | 0.00 | 0.00 | 0.00 | 72 | 1016.0 |
| 20260902073134 | 27 | 360 | 3.2 | 12.9 | 0.00 | 0.00 | 0.00 | 72 | 1016.0 |
| 20260902073034 | 27 | 360 | 3.2 | 12.9 | 0.00 | 0.00 | 0.00 | 72 | 1015.9 |
| 20260902072933 | 27 | 360 | 3.2 | 12.9 | 0.00 | 0.00 | 0.00 | 72 | 1016.0 |
| 20260902072835 | 27 | 360 | 4.8 | 12.9 | 0.00 | 0.00 | 0.00 | 72 | 1016.0 |
| 20260902072720 | 27 | 360 | 4.8 | 12.9 | 0.00 | 0.00 | 0.00 | 72 | 1016.0 |
| 20260902072620 | 27 | 360 | 4.8 | 12.9 | 0.00 | 0.00 | 0.00 | 72 | 1016.0 |
| 20260902072541 | 27 | 360 | 4.8 | 9.7 | 0.00 | 0.00 | 0.00 | 72 | 1016.0 |
| 20260902072421 | 27 | 360 | 4.8 | 9.7 | 0.00 | 0.00 | 0.00 | 72 | 1016.0 |
| 20260902072321 | 27 | 360 | 4.8 | 9.7 | 0.00 | 0.00 | 0.00 | 72 | 1016.0 |
| 20260902072222 | 27 | 360 | 3.2 | 9.7 | 0.00 | 0.00 | 0.00 | 72 | 1016.1 |
| 20260902072124 | 27 | 360 | 3.2 | 14.5 | 0.00 | 0.00 | 0.00 | 71 | 1016.0 |
| 20260902072023 | 27 | 360 | 3.2 | 14.5 | 0.00 | 0.00 | 0.00 | 72 | 1016.0 |
| 20260902071948 | 27 | 360 | 3.2 | 14.5 | 0.00 | 0.00 | 0.00 | 71 | 1016.0 |
| 20260902071827 | 27 | 360 | 3.2 | 14.5 | 0.00 | 0.00 | 0.00 | 72 | 1015.9 |
| 20260902071728 | 27 | 360 | 4.8 | 14.5 | 0.00 | 0.00 | 0.00 | 71 | 1016.0 |
| 20260902071649 | 27 | 360 | 3.2 | 14.5 | 0.00 | 0.00 | 0.00 | 71 | 1016.0 |
| 20260902071550 | 27 | 360 | 3.2 | 14.5 | 0.00 | 0.00 | 0.00 | 71 | 1016.0 |
| 20260902071449 | 27 | 360 | 4.8 | 9.7 | 0.00 | 0.00 | 0.00 | 71 | 1016.0 |
| 20260902071329 | 27 | 360 | 4.8 | 9.7 | 0.00 | 0.00 | 0.00 | 71 | 1016.0 |
| 20260902071230 | 27 | 360 | 3.2 | 9.7 | 0.00 | 0.00 | 0.00 | 71 | 1016.0 |
| 20260902071150 | 27 | 360 | 3.2 | 9.7 | 0.00 | 0.00 | 0.00 | 71 | 1016.1 |
| 20260902071034 | 27 | 360 | 3.2 | 9.7 | 0.00 | 0.00 | 0.00 | 71 | 1016.0 |
| 20260902070935 | 27 | 360 | 3.2 | 9.7 | 0.00 | 0.00 | 0.00 | 71 | 1016.1 |
| 20260902070816 | 27 | 360 | 3.2 | 9.7 | 0.00 | 0.00 | 0.00 | 71 | 1016.1 |
| 20260902070717 | 27 | 360 | 3.2 | 9.7 | 0.00 | 0.00 | 0.00 | 71 | 1016.1 |
| 20260902070617 | 27 | 360 | 3.2 | 9.7 | 0.00 | 0.00 | 0.00 | 71 | 1016.2 |
| 20260902070518 | 27 | 360 | 3.2 | 9.7 | 0.00 | 0.00 | 0.00 | 71 | 1016.2 |
| 20260902070422 | 27 | 360 | 4.8 | 9.7 | 0.00 | 0.00 | 0.00 | 71 | 1016.2 |
| 20260902070343 | 27 | 360 | 4.8 | 9.7 | 0.00 | 0.00 | 0.00 | 71 | 1016.1 |
| 20260902070216 | 27 | 360 | 3.2 | 16.1 | 0.00 | 0.00 | 0.00 | 71 | 1016.1 |
| 20260902070116 | 27 | 360 | 3.2 | 16.1 | 0.00 | 0.00 | 0.00 | 71 | 1016.1 |
| 20260902070017 | 27 | 360 | 3.2 | 16.1 | 0.00 | 0.00 | 0.00 | 71 | 1016.1 |
| 20260902065917 | 27 | 360 | 3.2 | 17.7 | 0.00 | 0.00 | 0.00 | 71 | 1016.1 |
| 20260902065818 | 27 | 360 | 3.2 | 17.7 | 0.00 | 0.00 | 0.00 | 71 | 1016.2 |
| 20260902065723 | 27 | 360 | 3.2 | 17.7 | 0.00 | 0.00 | 0.00 | 71 | 1016.1 |
| 20260902065623 | 27 | 360 | 4.8 | 17.7 | 0.00 | 0.00 | 0.00 | 71 | 1016.1 |
| 20260902065524 | 27 | 360 | 4.8 | 17.7 | 0.00 | 0.00 | 0.00 | 71 | 1016.1 |
| 20260902065425 | 27 | 360 | 4.8 | 17.7 | 0.00 | 0.00 | 0.00 | 71 | 1016.1 |
| 20260902065326 | 27 | 360 | 4.8 | 17.7 | 0.00 | 0.00 | 0.00 | 71 | 1016.0 |
| 20260902065226 | 27 | 360 | 6.4 | 17.7 | 0.00 | 0.00 | 0.00 | 71 | 1016.1 |
| 20260902065130 | 27 | 360 | 4.8 | 17.7 | 0.00 | 0.00 | 0.00 | 72 | 1016.1 |
| 20260902065032 | 27 | 360 | 4.8 | 17.7 | 0.00 | 0.00 | 0.00 | 72 | 1016.1 |
| 20260902064932 | 27 | 360 | 4.8 | 14.5 | 0.00 | 0.00 | 0.00 | 72 | 1016.1 |
| 20260902064832 | 27 | 360 | 4.8 | 14.5 | 0.00 | 0.00 | 0.00 | 72 | 1016.1 |
| 20260902064731 | 27 | 360 | 3.2 | 14.5 | 0.00 | 0.00 | 0.00 | 72 | 1016.1 |
| 20260902064632 | 27 | 360 | 3.2 | 14.5 | 0.00 | 0.00 | 0.00 | 73 | 1016.1 |
| 20260902064533 | 27 | 360 | 3.2 | 14.5 | 0.00 | 0.00 | 0.00 | 73 | 1016.1 |
| 20260902064417 | 27 | 360 | 3.2 | 14.5 | 0.00 | 0.00 | 0.00 | 72 | 1016.0 |
| 20260902064317 | 27 | 360 | 3.2 | 14.5 | 0.00 | 0.00 | 0.00 | 72 | 1016.1 |
| 20260902064217 | 27 | 360 | 3.2 | 14.5 | 0.00 | 0.00 | 0.00 | 72 | 1016.0 |
| 20260902064118 | 27 | 360 | 3.2 | 14.5 | 0.00 | 0.00 | 0.00 | 72 | 1016.0 |
| 20260902064038 | 27 | 360 | 4.8 | 16.1 | 0.00 | 0.00 | 0.00 | 72 | 1016.1 |
| 20260902063918 | 27 | 360 | 4.8 | 16.1 | 0.00 | 0.00 | 0.00 | 72 | 1016.1 |
| 20260902063819 | 27 | 360 | 4.8 | 16.1 | 0.00 | 0.00 | 0.00 | 72 | 1016.1 |
| 20260902063722 | 27 | 360 | 3.2 | 16.1 | 0.00 | 0.00 | 0.00 | 72 | 1016.1 |
| 20260902063623 | 27 | 360 | 3.2 | 16.1 | 0.00 | 0.00 | 0.00 | 72 | 1016.1 |
| 20260902063543 | 27 | 360 | 1.6 | 16.1 | 0.00 | 0.00 | 0.00 | 72 | 1016.1 |
| 20260902063416 | 27 | 360 | 3.2 | 16.1 | 0.00 | 0.00 | 0.00 | 72 | 1016.0 |
| 20260902063317 | 27 | 360 | 4.8 | 16.1 | 0.00 | 0.00 | 0.00 | 72 | 1016.1 |
| 20260902063218 | 27 | 360 | 4.8 | 16.1 | 0.00 | 0.00 | 0.00 | 72 | 1016.1 |
| 20260902063122 | 27 | 360 | 4.8 | 16.1 | 0.00 | 0.00 | 0.00 | 72 | 1016.1 |
| 20260902063043 | 27 | 360 | 4.8 | 16.1 | 0.00 | 0.00 | 0.00 | 72 | 1016.1 |
| 20260902062922 | 27 | 360 | 4.8 | 16.1 | 0.00 | 0.00 | 0.00 | 72 | 1016.1 |
| 20260902062824 | 27 | 360 | 4.8 | 16.1 | 0.00 | 0.00 | 0.00 | 72 | 1016.1 |
| 20260902062722 | 27 | 360 | 3.2 | 16.1 | 0.00 | 0.00 | 0.00 | 72 | 1016.1 |
| 20260902062622 | 27 | 360 | 4.8 | 16.1 | 0.00 | 0.00 | 0.00 | 72 | 1016.2 |
| 20260902062523 | 27 | 360 | 4.8 | 16.1 | 0.00 | 0.00 | 0.00 | 72 | 1016.0 |
| 20260902062444 | 27 | 360 | 4.8 | 16.1 | 0.00 | 0.00 | 0.00 | 73 | 1016.2 |
| 20260902062327 | 27 | 360 | 3.2 | 14.5 | 0.00 | 0.00 | 0.00 | 72 | 1016.1 |
| 20260902062228 | 27 | 360 | 3.2 | 14.5 | 0.00 | 0.00 | 0.00 | 72 | 1016.1 |
| 20260902062129 | 27 | 360 | 4.8 | 14.5 | 0.00 | 0.00 | 0.00 | 73 | 1016.1 |
| 20260902062050 | 27 | 360 | 4.8 | 12.9 | 0.00 | 0.00 | 0.00 | 73 | 1016.1 |
| 20260902061929 | 27 | 360 | 4.8 | 14.5 | 0.00 | 0.00 | 0.00 | 73 | 1016.1 |
| 20260902061848 | 27 | 360 | 3.2 | 14.5 | 0.00 | 0.00 | 0.00 | 73 | 1016.1 |
| 20260902061728 | 27 | 360 | 3.2 | 14.5 | 0.00 | 0.00 | 0.00 | 72 | 1016.0 |
| 20260902061633 | 27 | 360 | 3.2 | 14.5 | 0.00 | 0.00 | 0.00 | 72 | 1016.0 |
| 20260902061532 | 27 | 360 | 3.2 | 14.5 | 0.00 | 0.00 | 0.00 | 72 | 1016.1 |
| 20260902061434 | 27 | 360 | 3.2 | 14.5 | 0.00 | 0.00 | 0.00 | 72 | 1016.1 |
| 20260902061335 | 27 | 360 | 4.8 | 14.5 | 0.00 | 0.00 | 0.00 | 72 | 1016.1 |
| 20260902061235 | 27 | 360 | 4.8 | 14.5 | 0.00 | 0.00 | 0.00 | 72 | 1016.1 |
| 20260902061136 | 27 | 360 | 4.8 | 14.5 | 0.00 | 0.00 | 0.00 | 72 | 1016.1 |
| 20260902061020 | 27 | 360 | 4.8 | 16.1 | 0.00 | 0.00 | 0.00 | 72 | 1016.1 |
| 20260902060940 | 27 | 360 | 4.8 | 16.1 | 0.00 | 0.00 | 0.00 | 72 | 1016.2 |
| 20260902060819 | 27 | 360 | 4.8 | 16.1 | 0.00 | 0.00 | 0.00 | 72 | 1016.1 |
| 20260902060720 | 27 | 360 | 4.8 | 16.1 | 0.00 | 0.00 | 0.00 | 72 | 1016.1 |
| 20260902060620 | 27 | 360 | 4.8 | 16.1 | 0.00 | 0.00 | 0.00 | 72 | 1016.1 |
| 20260902060520 | 27 | 360 | 4.8 | 20.9 | 0.00 | 0.00 | 0.00 | 72 | 1016.1 |
| 20260902060442 | 27 | 360 | 4.8 | 20.9 | 0.00 | 0.00 | 0.00 | 72 | 1016.0 |
| 20260902060322 | 27 | 360 | 4.8 | 20.9 | 0.00 | 0.00 | 0.00 | 72 | 1016.1 |
| 20260902060226 | 28 | 360 | 6.4 | 20.9 | 0.00 | 0.00 | 0.00 | 72 | 1016.1 |
| 20260902060127 | 28 | 360 | 6.4 | 20.9 | 0.00 | 0.00 | 0.00 | 72 | 1016.1 |
| 20260902060027 | 28 | 360 | 4.8 | 20.9 | 0.00 | 0.00 | 0.00 | 72 | 1016.0 |
| 20260902055927 | 28 | 360 | 3.2 | 20.9 | 0.00 | 0.00 | 0.00 | 72 | 1016.1 |
| 20260902055849 | 28 | 360 | 3.2 | 20.9 | 0.00 | 0.00 | 0.00 | 72 | 1016.0 |
| 20260902055724 | 28 | 360 | 4.8 | 20.9 | 0.00 | 0.00 | 0.00 | 72 | 1016.1 |
| 20260902055624 | 28 | 360 | 4.8 | 20.9 | 0.00 | 0.00 | 0.00 | 72 | 1016.1 |
| 20260902055524 | 28 | 360 | 4.8 | 20.9 | 0.00 | 0.00 | 0.00 | 72 | 1016.1 |
| 20260902055449 | 28 | 360 | 3.2 | 20.9 | 0.00 | 0.00 | 0.00 | 72 | 1016.1 |
| 20260902055328 | 28 | 360 | 4.8 | 19.3 | 0.00 | 0.00 | 0.00 | 72 | 1016.1 |
| 20260902055229 | 28 | 360 | 6.4 | 19.3 | 0.00 | 0.00 | 0.00 | 72 | 1016.1 |
| 20260902055150 | 28 | 360 | 8.0 | 19.3 | 0.00 | 0.00 | 0.00 | 72 | 1016.1 |
| 20260902055050 | 28 | 360 | 9.7 | 19.3 | 0.00 | 0.00 | 0.00 | 72 | 1016.2 |
| 20260902054928 | 28 | 360 | 6.4 | 19.3 | 0.00 | 0.00 | 0.00 | 72 | 1016.1 |
| 20260902054828 | 28 | 360 | 8.0 | 19.3 | 0.00 | 0.00 | 0.00 | 72 | 1016.1 |
| 20260902054729 | 28 | 360 | 6.4 | 19.3 | 0.00 | 0.00 | 0.00 | 72 | 1016.1 |
| 20260902054650 | 28 | 360 | 8.0 | 19.3 | 0.00 | 0.00 | 0.00 | 72 | 1016.2 |
| 20260902054533 | 28 | 360 | 6.4 | 19.3 | 0.00 | 0.00 | 0.00 | 72 | 1016.1 |
| 20260902054433 | 28 | 360 | 8.0 | 19.3 | 0.00 | 0.00 | 0.00 | 72 | 1016.0 |
| 20260902054354 | 28 | 360 | 8.0 | 19.3 | 0.00 | 0.00 | 0.00 | 72 | 1016.1 |
| 20260902054254 | 28 | 360 | 8.0 | 19.3 | 0.00 | 0.00 | 0.00 | 71 | 1016.1 |
| 20260902054133 | 28 | 360 | 6.4 | 19.3 | 0.00 | 0.00 | 0.00 | 71 | 1016.1 |
| 20260902054033 | 28 | 360 | 6.4 | 17.7 | 0.00 | 0.00 | 0.00 | 71 | 1016.1 |
| 20260902053933 | 28 | 360 | 6.4 | 17.7 | 0.00 | 0.00 | 0.00 | 71 | 1016.1 |
| 20260902053855 | 28 | 360 | 6.4 | 17.7 | 0.00 | 0.00 | 0.00 | 71 | 1016.1 |
| 20260902053738 | 28 | 360 | 6.4 | 17.7 | 0.00 | 0.00 | 0.00 | 71 | 1016.1 |
| 20260902053618 | 28 | 360 | 6.4 | 20.9 | 0.00 | 0.00 | 0.00 | 71 | 1016.1 |
| 20260902053517 | 28 | 360 | 6.4 | 20.9 | 0.00 | 0.00 | 0.00 | 71 | 1016.0 |
| 20260902053418 | 28 | 360 | 6.4 | 20.9 | 0.00 | 0.00 | 0.00 | 71 | 1016.0 |
| 20260902053318 | 28 | 360 | 6.4 | 20.9 | 0.00 | 0.00 | 0.00 | 71 | 1016.0 |
| 20260902053218 | 28 | 360 | 8.0 | 20.9 | 0.00 | 0.00 | 0.00 | 71 | 1016.0 |
| 20260902053140 | 28 | 360 | 9.7 | 20.9 | 0.00 | 0.00 | 0.00 | 71 | 1016.0 |
| 20260902053023 | 28 | 360 | 9.7 | 20.9 | 0.00 | 0.00 | 0.00 | 71 | 1016.1 |
| 20260902052944 | 28 | 360 | 9.7 | 20.9 | 0.00 | 0.00 | 0.00 | 71 | 1016.1 |
| 20260902052845 | 28 | 360 | 8.0 | 20.9 | 0.00 | 0.00 | 0.00 | 71 | 1016.0 |
| 20260902052723 | 28 | 360 | 8.0 | 16.1 | 0.00 | 0.00 | 0.00 | 71 | 1016.1 |
| 20260902052643 | 28 | 360 | 8.0 | 20.9 | 0.00 | 0.00 | 0.00 | 71 | 1016.1 |
| 20260902052523 | 28 | 360 | 8.0 | 20.9 | 0.00 | 0.00 | 0.00 | 71 | 1016.1 |
| 20260902052423 | 28 | 360 | 6.4 | 20.9 | 0.00 | 0.00 | 0.00 | 71 | 1016.0 |
| 20260902052324 | 28 | 360 | 4.8 | 20.9 | 0.00 | 0.00 | 0.00 | 71 | 1016.0 |
| 20260902052228 | 28 | 360 | 6.4 | 20.9 | 0.00 | 0.00 | 0.00 | 71 | 1016.1 |
| 20260902052128 | 28 | 360 | 8.0 | 20.9 | 0.00 | 0.00 | 0.00 | 71 | 1016.1 |
| 20260902052029 | 28 | 360 | 9.7 | 20.9 | 0.00 | 0.00 | 0.00 | 71 | 1016.0 |
| 20260902051930 | 28 | 360 | 9.7 | 20.9 | 0.00 | 0.00 | 0.00 | 71 | 1016.1 |
| 20260902051830 | 28 | 360 | 9.7 | 20.9 | 0.00 | 0.00 | 0.00 | 71 | 1016.1 |
| 20260902051731 | 28 | 360 | 9.7 | 25.7 | 0.00 | 0.00 | 0.00 | 70 | 1016.1 |
| 20260902051631 | 28 | 360 | 8.0 | 25.7 | 0.00 | 0.00 | 0.00 | 70 | 1016.1 |
| 20260902051556 | 28 | 360 | 8.0 | 25.7 | 0.00 | 0.00 | 0.00 | 70 | 1016.1 |
| 20260902051434 | 28 | 360 | 9.7 | 25.7 | 0.00 | 0.00 | 0.00 | 70 | 1016.1 |
| 20260902051334 | 28 | 360 | 8.0 | 25.7 | 0.00 | 0.00 | 0.00 | 70 | 1016.1 |
| 20260902051234 | 28 | 360 | 9.7 | 25.7 | 0.00 | 0.00 | 0.00 | 70 | 1016.1 |
| 20260902051135 | 28 | 360 | 11.3 | 25.7 | 0.00 | 0.00 | 0.00 | 70 | 1016.1 |
| 20260902051054 | 28 | 360 | 11.3 | 25.7 | 0.00 | 0.00 | 0.00 | 70 | 1016.1 |
| 20260902050934 | 28 | 360 | 11.3 | 25.7 | 0.00 | 0.00 | 0.00 | 70 | 1016.1 |
| 20260902050820 | 28 | 360 | 11.3 | 20.9 | 0.00 | 0.00 | 0.00 | 70 | 1016.1 |
| 20260902050720 | 28 | 360 | 9.7 | 20.9 | 0.00 | 0.00 | 0.00 | 70 | 1016.1 |
| 20260902050620 | 28 | 360 | 9.7 | 20.9 | 0.00 | 0.00 | 0.00 | 70 | 1016.1 |
| 20260902050521 | 28 | 360 | 8.0 | 22.5 | 0.00 | 0.00 | 0.00 | 70 | 1016.2 |
| 20260902050422 | 28 | 360 | 8.0 | 22.5 | 0.00 | 0.00 | 0.00 | 70 | 1016.1 |
| 20260902050322 | 28 | 360 | 9.7 | 22.5 | 0.00 | 0.00 | 0.00 | 70 | 1016.2 |
| 20260902050227 | 28 | 360 | 9.7 | 22.5 | 0.00 | 0.00 | 0.00 | 70 | 1016.2 |
| 20260902050127 | 28 | 360 | 11.3 | 22.5 | 0.00 | 0.00 | 0.00 | 70 | 1016.2 |
| 20260902050028 | 28 | 360 | 11.3 | 22.5 | 0.00 | 0.00 | 0.00 | 70 | 1016.2 |
| 20260902045922 | 28 | 360 | 12.9 | 22.5 | 0.00 | 0.00 | 0.00 | 70 | 1016.1 |
| 20260902045823 | 28 | 360 | 12.9 | 22.5 | 0.00 | 0.00 | 0.00 | 70 | 1016.2 |
| 20260902045723 | 28 | 360 | 11.3 | 22.5 | 0.00 | 0.00 | 0.00 | 70 | 1016.2 |
| 20260902045622 | 28 | 360 | 11.3 | 22.5 | 0.00 | 0.00 | 0.00 | 70 | 1016.1 |
| 20260902045543 | 28 | 360 | 9.7 | 20.9 | 0.00 | 0.00 | 0.00 | 70 | 1016.2 |
| 20260902045426 | 28 | 360 | 11.3 | 17.7 | 0.00 | 0.00 | 0.00 | 69 | 1016.2 |
| 20260902045327 | 28 | 360 | 11.3 | 17.7 | 0.00 | 0.00 | 0.00 | 69 | 1016.2 |
| 20260902045227 | 28 | 360 | 9.7 | 17.7 | 0.00 | 0.00 | 0.00 | 69 | 1016.1 |
| 20260902045148 | 28 | 360 | 9.7 | 17.7 | 0.00 | 0.00 | 0.00 | 69 | 1016.2 |
| 20260902045026 | 28 | 360 | 9.7 | 16.1 | 0.00 | 0.00 | 0.00 | 69 | 1016.2 |
| 20260902044945 | 28 | 360 | 11.3 | 16.1 | 0.00 | 0.00 | 0.00 | 69 | 1016.2 |
| 20260902044825 | 28 | 360 | 9.7 | 16.1 | 0.00 | 0.00 | 0.00 | 69 | 1016.2 |
| 20260902044726 | 28 | 360 | 9.7 | 16.1 | 0.00 | 0.00 | 0.00 | 69 | 1016.1 |
| 20260902044630 | 28 | 360 | 9.7 | 16.1 | 0.00 | 0.00 | 0.00 | 69 | 1016.2 |
| 20260902044530 | 28 | 360 | 8.0 | 19.3 | 0.00 | 0.00 | 0.00 | 69 | 1016.1 |
| 20260902044431 | 28 | 360 | 8.0 | 19.3 | 0.00 | 0.00 | 0.00 | 69 | 1016.1 |
| 20260902044351 | 28 | 182 | 8.0 | 19.3 | 0.00 | 0.00 | 0.00 | 69 | 1016.1 |
| 20260902044251 | 28 | 360 | 8.0 | 19.3 | 0.00 | 0.00 | 0.00 | 69 | 1016.1 |
| 20260902044130 | 29 | 360 | 9.7 | 19.3 | 0.00 | 0.00 | 0.00 | 69 | 1016.1 |
| 20260902044051 | 29 | 360 | 9.7 | 19.3 | 0.00 | 0.00 | 0.00 | 68 | 1016.1 |
| 20260902043950 | 29 | 360 | 11.3 | 19.3 | 0.00 | 0.00 | 0.00 | 68 | 1016.1 |
| 20260902043834 | 29 | 360 | 11.3 | 19.3 | 0.00 | 0.00 | 0.00 | 68 | 1016.1 |
| 20260902043735 | 29 | 360 | 11.3 | 19.3 | 0.00 | 0.00 | 0.00 | 68 | 1016.1 |
| 20260902043635 | 29 | 360 | 9.7 | 19.3 | 0.00 | 0.00 | 0.00 | 68 | 1016.0 |
| 20260902043536 | 29 | 360 | 9.7 | 19.3 | 0.00 | 0.00 | 0.00 | 68 | 1016.0 |
| 20260902043458 | 29 | 360 | 9.7 | 19.3 | 0.00 | 0.00 | 0.00 | 68 | 1016.1 |
| 20260902043357 | 29 | 360 | 8.0 | 19.3 | 0.00 | 0.00 | 0.00 | 68 | 1016.0 |
| 20260902043257 | 29 | 360 | 9.7 | 19.3 | 0.00 | 0.00 | 0.00 | 68 | 1016.0 |
| 20260902043135 | 29 | 360 | 9.7 | 19.3 | 0.00 | 0.00 | 0.00 | 68 | 1016.1 |
| 20260902043019 | 29 | 360 | 9.7 | 24.1 | 0.00 | 0.00 | 0.00 | 68 | 1016.0 |
| 20260902042939 | 29 | 360 | 9.7 | 24.1 | 0.00 | 0.00 | 0.00 | 68 | 1016.1 |
| 20260902042820 | 29 | 360 | 9.7 | 24.1 | 0.00 | 0.00 | 0.00 | 68 | 1016.1 |
| 20260902042719 | 29 | 360 | 11.3 | 24.1 | 0.00 | 0.00 | 0.00 | 67 | 1016.1 |
| 20260902042620 | 29 | 360 | 11.3 | 24.1 | 0.00 | 0.00 | 0.00 | 67 | 1016.1 |
| 20260902042520 | 29 | 360 | 11.3 | 24.1 | 0.00 | 0.00 | 0.00 | 67 | 1016.1 |
| 20260902042420 | 29 | 360 | 12.9 | 24.1 | 0.00 | 0.00 | 0.00 | 67 | 1016.1 |
| 20260902042319 | 29 | 360 | 14.5 | 24.1 | 0.00 | 0.00 | 0.00 | 67 | 1016.1 |
| 20260902042224 | 29 | 360 | 12.9 | 24.1 | 0.00 | 0.00 | 0.00 | 67 | 1016.0 |
| 20260902042125 | 29 | 360 | 12.9 | 19.3 | 0.00 | 0.00 | 0.00 | 67 | 1016.1 |
| 20260902042045 | 29 | 360 | 12.9 | 20.9 | 0.00 | 0.00 | 0.00 | 67 | 1016.1 |
| 20260902041924 | 29 | 360 | 12.9 | 20.9 | 0.00 | 0.00 | 0.00 | 67 | 1016.1 |
| 20260902041824 | 29 | 360 | 11.3 | 20.9 | 0.00 | 0.00 | 0.00 | 67 | 1016.1 |
| 20260902041725 | 29 | 360 | 11.3 | 20.9 | 0.00 | 0.00 | 0.00 | 67 | 1016.2 |
| 20260902041626 | 30 | 360 | 9.7 | 20.9 | 0.00 | 0.00 | 0.00 | 67 | 1016.1 |
| 20260902041529 | 30 | 360 | 9.7 | 20.9 | 0.00 | 0.00 | 0.00 | 67 | 1016.1 |
| 20260902041429 | 30 | 360 | 12.9 | 20.9 | 0.00 | 0.00 | 0.00 | 66 | 1016.1 |
| 20260902041330 | 30 | 360 | 14.5 | 20.9 | 0.00 | 0.00 | 0.00 | 66 | 1016.1 |
| 20260902041228 | 30 | 360 | 14.5 | 20.9 | 0.00 | 0.00 | 0.00 | 66 | 1016.1 |
| 20260902041128 | 30 | 360 | 12.9 | 20.9 | 0.00 | 0.00 | 0.00 | 66 | 1016.1 |
| 20260902041027 | 30 | 360 | 12.9 | 20.9 | 0.00 | 0.00 | 0.00 | 66 | 1016.1 |
| 20260902040928 | 30 | 360 | 12.9 | 20.9 | 0.00 | 0.00 | 0.00 | 66 | 1016.1 |
| 20260902040827 | 30 | 360 | 12.9 | 20.9 | 0.00 | 0.00 | 0.00 | 65 | 1016.2 |
| 20260902040732 | 30 | 360 | 12.9 | 20.9 | 0.00 | 0.00 | 0.00 | 65 | 1016.1 |
| 20260902040632 | 30 | 360 | 11.3 | 20.9 | 0.00 | 0.00 | 0.00 | 65 | 1016.2 |
| 20260902040533 | 30 | 360 | 11.3 | 19.3 | 0.00 | 0.00 | 0.00 | 65 | 1016.1 |
| 20260902040432 | 30 | 360 | 12.9 | 19.3 | 0.00 | 0.00 | 0.00 | 65 | 1016.1 |
| 20260902040332 | 30 | 360 | 14.5 | 19.3 | 0.00 | 0.00 | 0.00 | 65 | 1016.1 |
| 20260902040233 | 30 | 360 | 14.5 | 19.3 | 0.00 | 0.00 | 0.00 | 65 | 1016.1 |
| 20260902040117 | 30 | 360 | 12.9 | 19.3 | 0.00 | 0.00 | 0.00 | 65 | 1016.0 |
| 20260902040019 | 30 | 360 | 12.9 | 19.3 | 0.00 | 0.00 | 0.00 | 65 | 1016.0 |
| 20260902035919 | 30 | 360 | 11.3 | 19.3 | 0.00 | 0.00 | 0.00 | 65 | 1016.0 |
| 20260902035842 | 30 | 171 | 11.3 | 19.3 | 0.00 | 0.00 | 0.00 | 64 | 1016.0 |
| 20260902035740 | 30 | 360 | 11.3 | 19.3 | 0.00 | 0.00 | 0.00 | 64 | 1016.1 |
| 20260902035619 | 30 | 360 | 11.3 | 24.1 | 0.00 | 0.00 | 0.00 | 64 | 1016.1 |
| 20260902035521 | 30 | 360 | 12.9 | 24.1 | 0.00 | 0.00 | 0.00 | 64 | 1016.0 |
| 20260902035422 | 30 | 360 | 12.9 | 24.1 | 0.00 | 0.00 | 0.00 | 64 | 1016.0 |
| 20260902035326 | 30 | 360 | 11.3 | 24.1 | 0.00 | 0.00 | 0.00 | 64 | 1016.0 |
| 20260902035227 | 30 | 360 | 11.3 | 24.1 | 0.00 | 0.00 | 0.00 | 64 | 1016.1 |
| 20260902035127 | 30 | 360 | 11.3 | 24.1 | 0.00 | 0.00 | 0.00 | 64 | 1016.0 |
| 20260902035027 | 30 | 360 | 12.9 | 24.1 | 0.00 | 0.00 | 0.00 | 64 | 1016.0 |
| 20260902034928 | 30 | 360 | 14.5 | 24.1 | 0.00 | 0.00 | 0.00 | 64 | 1016.0 |
| 20260902034829 | 30 | 360 | 14.5 | 24.1 | 0.00 | 0.00 | 0.00 | 64 | 1016.0 |
| 20260902034749 | 30 | 360 | 12.9 | 24.1 | 0.00 | 0.00 | 0.00 | 64 | 1015.9 |
| 20260902034633 | 30 | 360 | 12.9 | 24.1 | 0.00 | 0.00 | 0.00 | 64 | 1015.9 |
| 20260902034533 | 30 | 360 | 14.5 | 24.1 | 0.00 | 0.00 | 0.00 | 64 | 1015.9 |
| 20260902034433 | 30 | 360 | 16.1 | 24.1 | 0.00 | 0.00 | 0.00 | 64 | 1015.9 |
| 20260902034335 | 30 | 360 | 14.5 | 24.1 | 0.00 | 0.00 | 0.00 | 64 | 1015.9 |
| 20260902034233 | 30 | 360 | 11.3 | 22.5 | 0.00 | 0.00 | 0.00 | 64 | 1015.8 |
| 20260902034134 | 30 | 360 | 11.3 | 17.7 | 0.00 | 0.00 | 0.00 | 64 | 1015.9 |
| 20260902034034 | 30 | 360 | 11.3 | 17.7 | 0.00 | 0.00 | 0.00 | 64 | 1015.8 |
| 20260902033919 | 30 | 360 | 9.7 | 17.7 | 0.00 | 0.00 | 0.00 | 63 | 1015.8 |
| 20260902033820 | 30 | 360 | 9.7 | 17.7 | 0.00 | 0.00 | 0.00 | 63 | 1015.8 |
| 20260902033720 | 30 | 360 | 11.3 | 17.7 | 0.00 | 0.00 | 0.00 | 63 | 1015.7 |
| 20260902033620 | 30 | 360 | 11.3 | 17.7 | 0.00 | 0.00 | 0.00 | 63 | 1015.8 |
| 20260902033521 | 30 | 360 | 11.3 | 17.7 | 0.00 | 0.00 | 0.00 | 63 | 1015.8 |
| 20260902033422 | 30 | 360 | 11.3 | 17.7 | 0.00 | 0.00 | 0.00 | 63 | 1015.7 |
| 20260902033327 | 30 | 360 | 11.3 | 17.7 | 0.00 | 0.00 | 0.00 | 63 | 1015.8 |
| 20260902033228 | 30 | 360 | 9.7 | 17.7 | 0.00 | 0.00 | 0.00 | 63 | 1015.7 |
| 20260902033148 | 30 | 360 | 8.0 | 16.1 | 0.00 | 0.00 | 0.00 | 63 | 1015.8 |
| 20260902033027 | 30 | 360 | 8.0 | 16.1 | 0.00 | 0.00 | 0.00 | 63 | 1015.7 |
| 20260902032927 | 30 | 360 | 8.0 | 16.1 | 0.00 | 0.00 | 0.00 | 63 | 1015.6 |
| 20260902032830 | 30 | 360 | 9.7 | 16.1 | 0.00 | 0.00 | 0.00 | 63 | 1015.8 |
| 20260902032730 | 30 | 360 | 9.7 | 16.1 | 0.00 | 0.00 | 0.00 | 63 | 1015.7 |
| 20260902032635 | 30 | 360 | 11.3 | 16.1 | 0.00 | 0.00 | 0.00 | 63 | 1015.6 |
| 20260902032555 | 30 | 360 | 11.3 | 16.1 | 0.00 | 0.00 | 0.00 | 62 | 1015.7 |
| 20260902032454 | 30 | 360 | 9.7 | 16.1 | 0.00 | 0.00 | 0.00 | 62 | 1015.7 |
| 20260902032316 | 30 | 360 | 8.0 | 14.5 | 0.00 | 0.00 | 0.00 | 62 | 1015.8 |
| 20260902032236 | 30 | 360 | 8.0 | 14.5 | 0.00 | 0.00 | 0.00 | 62 | 1015.7 |
| 20260902032157 | 30 | 360 | 9.7 | 14.5 | 0.00 | 0.00 | 0.00 | 62 | 1015.8 |
| 20260902032056 | 30 | 360 | 9.7 | 14.5 | 0.00 | 0.00 | 0.00 | 62 | 1015.8 |
| 20260902031935 | 30 | 360 | 9.7 | 14.5 | 0.00 | 0.00 | 0.00 | 62 | 1015.7 |
| 20260902031820 | 30 | 360 | 9.7 | 14.5 | 0.00 | 0.00 | 0.00 | 62 | 1015.8 |
| 20260902031720 | 30 | 360 | 8.0 | 14.5 | 0.00 | 0.00 | 0.00 | 62 | 1015.7 |
| 20260902031621 | 30 | 360 | 8.0 | 14.5 | 0.00 | 0.00 | 0.00 | 62 | 1015.7 |
| 20260902031520 | 30 | 360 | 8.0 | 12.9 | 0.00 | 0.00 | 0.00 | 62 | 1015.7 |
| 20260902031420 | 30 | 360 | 6.4 | 12.9 | 0.00 | 0.00 | 0.00 | 62 | 1015.7 |
| 20260902031321 | 30 | 360 | 6.4 | 12.9 | 0.00 | 0.00 | 0.00 | 62 | 1015.6 |
| 20260902031242 | 30 | 360 | 4.8 | 12.9 | 0.00 | 0.00 | 0.00 | 62 | 1015.6 |
| 20260902031121 | 30 | 360 | 4.8 | 9.7 | 0.00 | 0.00 | 0.00 | 62 | 1015.6 |
| 20260902031026 | 30 | 360 | 4.8 | 8.0 | 0.00 | 0.00 | 0.00 | 62 | 1015.5 |
| 20260902030927 | 30 | 360 | 6.4 | 8.0 | 0.00 | 0.00 | 0.00 | 61 | 1015.5 |
| 20260902030828 | 30 | 360 | 4.8 | 8.0 | 0.00 | 0.00 | 0.00 | 61 | 1015.5 |
| 20260902030729 | 30 | 360 | 4.8 | 8.0 | 0.00 | 0.00 | 0.00 | 61 | 1015.5 |
| 20260902030629 | 30 | 360 | 4.8 | 9.7 | 0.00 | 0.00 | 0.00 | 61 | 1015.5 |
| 20260902030529 | 30 | 360 | 4.8 | 9.7 | 0.00 | 0.00 | 0.00 | 61 | 1015.5 |
| 20260902030434 | 30 | 360 | 4.8 | 9.7 | 0.00 | 0.00 | 0.00 | 61 | 1015.5 |
| 20260902030355 | 30 | 360 | 4.8 | 9.7 | 0.00 | 0.00 | 0.00 | 61 | 1015.5 |
| 20260902030235 | 30 | 360 | 4.8 | 9.7 | 0.00 | 0.00 | 0.00 | 61 | 1015.4 |
| 20260902030155 | 30 | 360 | 4.8 | 9.7 | 0.00 | 0.00 | 0.00 | 61 | 1015.3 |
| 20260902030035 | 30 | 360 | 6.4 | 9.7 | 0.00 | 0.00 | 0.00 | 61 | 1015.4 |
| 20260902025936 | 30 | 360 | 6.4 | 9.7 | 0.00 | 0.00 | 0.00 | 61 | 1015.4 |
| 20260902025817 | 30 | 360 | 6.4 | 9.7 | 0.00 | 0.00 | 0.00 | 60 | 1015.4 |
| 20260902025721 | 30 | 360 | 6.4 | 9.7 | 0.00 | 0.00 | 0.00 | 60 | 1015.3 |
| 20260902025622 | 30 | 360 | 6.4 | 9.7 | 0.00 | 0.00 | 0.00 | 60 | 1015.3 |
| 20260902025523 | 31 | 360 | 8.0 | 9.7 | 0.00 | 0.00 | 0.00 | 60 | 1015.4 |
| 20260902025423 | 31 | 360 | 8.0 | 12.9 | 0.00 | 0.00 | 0.00 | 60 | 1015.3 |
| 20260902025323 | 31 | 360 | 8.0 | 12.9 | 0.00 | 0.00 | 0.00 | 60 | 1015.2 |
| 20260902025224 | 31 | 360 | 8.0 | 14.5 | 0.00 | 0.00 | 0.00 | 60 | 1015.3 |
| 20260902025125 | 31 | 360 | 6.4 | 14.5 | 0.00 | 0.00 | 0.00 | 60 | 1015.2 |
| 20260902025030 | 31 | 360 | 6.4 | 14.5 | 0.00 | 0.00 | 0.00 | 60 | 1015.2 |
| 20260902024930 | 31 | 360 | 6.4 | 14.5 | 0.00 | 0.00 | 0.00 | 60 | 1015.1 |
| 20260902024830 | 31 | 360 | 6.4 | 14.5 | 0.00 | 0.00 | 0.00 | 60 | 1015.2 |
| 20260902024732 | 31 | 360 | 8.0 | 14.5 | 0.00 | 0.00 | 0.00 | 60 | 1015.1 |
| 20260902024633 | 31 | 360 | 8.0 | 14.5 | 0.00 | 0.00 | 0.00 | 60 | 1015.0 |
| 20260902024533 | 31 | 360 | 8.0 | 14.5 | 0.00 | 0.00 | 0.00 | 59 | 1015.0 |
| 20260902024417 | 31 | 150 | 8.0 | 14.5 | 0.00 | 0.00 | 0.00 | 59 | 1015.1 |
| 20260902024318 | 31 | 360 | 8.0 | 14.5 | 0.00 | 0.00 | 0.00 | 59 | 1015.0 |
| 20260902024220 | 31 | 360 | 8.0 | 14.5 | 0.00 | 0.00 | 0.00 | 59 | 1015.0 |
| 20260902024140 | 31 | 360 | 8.0 | 14.5 | 0.00 | 0.00 | 0.00 | 59 | 1015.0 |
| 20260902024020 | 31 | 360 | 8.0 | 14.5 | 0.00 | 0.00 | 0.00 | 59 | 1015.0 |
| 20260902023919 | 31 | 360 | 8.0 | 14.5 | 0.00 | 0.00 | 0.00 | 59 | 1015.0 |
| 20260902023821 | 31 | 360 | 8.0 | 14.5 | 0.00 | 0.00 | 0.00 | 59 | 1014.9 |
| 20260902023725 | 31 | 360 | 8.0 | 14.5 | 0.00 | 0.00 | 0.00 | 59 | 1014.9 |
| 20260902023646 | 31 | 173 | 8.0 | 12.9 | 0.00 | 0.00 | 0.00 | 59 | 1014.8 |
| 20260902023525 | 31 | 360 | 8.0 | 12.9 | 0.00 | 0.00 | 0.00 | 59 | 1014.8 |
| 20260902023446 | 31 | 360 | 8.0 | 12.9 | 0.00 | 0.00 | 0.00 | 59 | 1014.7 |
| 20260902023326 | 31 | 360 | 8.0 | 12.9 | 0.00 | 0.00 | 0.00 | 58 | 1014.7 |
| 20260902023246 | 31 | 360 | 8.0 | 12.9 | 0.00 | 0.00 | 0.00 | 58 | 1014.7 |
| 20260902023126 | 31 | 360 | 6.4 | 12.9 | 0.00 | 0.00 | 0.00 | 58 | 1014.7 |
| 20260902023027 | 31 | 360 | 8.0 | 12.9 | 0.00 | 0.00 | 0.00 | 58 | 1014.7 |
| 20260902022932 | 31 | 360 | 8.0 | 12.9 | 0.00 | 0.00 | 0.00 | 58 | 1014.7 |
| 20260902022852 | 31 | 360 | 8.0 | 12.9 | 0.00 | 0.00 | 0.00 | 58 | 1014.6 |
| 20260902022730 | 31 | 360 | 8.0 | 14.5 | 0.00 | 0.00 | 0.00 | 58 | 1014.6 |
| 20260902022631 | 31 | 360 | 8.0 | 14.5 | 0.00 | 0.00 | 0.00 | 58 | 1014.6 |
| 20260902022532 | 31 | 360 | 6.4 | 14.5 | 0.00 | 0.00 | 0.00 | 58 | 1014.6 |
| 20260902022434 | 31 | 360 | 6.4 | 14.5 | 0.00 | 0.00 | 0.00 | 58 | 1014.6 |
| 20260902022318 | 31 | 360 | 6.4 | 16.1 | 0.00 | 0.00 | 0.00 | 58 | 1014.6 |
| 20260902022239 | 31 | 360 | 8.0 | 16.1 | 0.00 | 0.00 | 0.00 | 58 | 1014.6 |
| 20260902022119 | 31 | 360 | 9.7 | 16.1 | 0.00 | 0.00 | 0.00 | 58 | 1014.5 |
| 20260902022019 | 31 | 360 | 9.7 | 16.1 | 0.00 | 0.00 | 0.00 | 58 | 1014.6 |
| 20260902021920 | 31 | 360 | 8.0 | 16.1 | 0.00 | 0.00 | 0.00 | 58 | 1014.5 |
| 20260902021841 | 31 | 360 | 8.0 | 16.1 | 0.00 | 0.00 | 0.00 | 58 | 1014.5 |
| 20260902021721 | 31 | 360 | 9.7 | 16.1 | 0.00 | 0.00 | 0.00 | 58 | 1014.4 |
| 20260902021643 | 31 | 360 | 9.7 | 16.1 | 0.00 | 0.00 | 0.00 | 58 | 1014.4 |
| 20260902021526 | 31 | 360 | 8.0 | 17.7 | 0.00 | 0.00 | 0.00 | 57 | 1014.4 |
| 20260902021447 | 31 | 360 | 8.0 | 17.7 | 0.00 | 0.00 | 0.00 | 57 | 1014.4 |
| 20260902021325 | 31 | 360 | 8.0 | 17.7 | 0.00 | 0.00 | 0.00 | 57 | 1014.3 |
| 20260902021246 | 31 | 360 | 9.7 | 19.3 | 0.00 | 0.00 | 0.00 | 57 | 1014.3 |
| 20260902021125 | 31 | 360 | 9.7 | 19.3 | 0.00 | 0.00 | 0.00 | 57 | 1014.3 |
| 20260902021045 | 31 | 360 | 9.7 | 19.3 | 0.00 | 0.00 | 0.00 | 57 | 1014.3 |
| 20260902020944 | 31 | 360 | 9.7 | 20.9 | 0.00 | 0.00 | 0.00 | 57 | 1014.3 |
| 20260902020823 | 31 | 360 | 11.3 | 20.9 | 0.00 | 0.00 | 0.00 | 57 | 1014.3 |
| 20260902020725 | 31 | 360 | 11.3 | 20.9 | 0.00 | 0.00 | 0.00 | 57 | 1014.4 |
| 20260902020631 | 31 | 360 | 11.3 | 20.9 | 0.00 | 0.00 | 0.00 | 57 | 1014.3 |
| 20260902020532 | 32 | 360 | 12.9 | 20.9 | 0.00 | 0.00 | 0.00 | 57 | 1014.3 |
| 20260902020433 | 32 | 360 | 12.9 | 20.9 | 0.00 | 0.00 | 0.00 | 56 | 1014.4 |
| 20260902020333 | 32 | 360 | 14.5 | 20.9 | 0.00 | 0.00 | 0.00 | 56 | 1014.4 |
| 20260902020233 | 32 | 360 | 14.5 | 24.1 | 0.00 | 0.00 | 0.00 | 56 | 1014.3 |
| 20260902020134 | 32 | 360 | 12.9 | 24.1 | 0.00 | 0.00 | 0.00 | 56 | 1014.3 |
| 20260902020039 | 32 | 360 | 11.3 | 24.1 | 0.00 | 0.00 | 0.00 | 56 | 1014.3 |
| 20260902015918 | 32 | 360 | 11.3 | 24.1 | 0.00 | 0.00 | 0.00 | 56 | 1014.3 |
| 20260902015821 | 32 | 360 | 11.3 | 24.1 | 0.00 | 0.00 | 0.00 | 56 | 1014.3 |
| 20260902015720 | 32 | 360 | 12.9 | 24.1 | 0.00 | 0.00 | 0.00 | 56 | 1014.2 |
| 20260902015622 | 32 | 360 | 14.5 | 24.1 | 0.00 | 0.00 | 0.00 | 56 | 1014.2 |
| 20260902015542 | 32 | 360 | 14.5 | 24.1 | 0.00 | 0.00 | 0.00 | 56 | 1014.3 |
| 20260902015416 | 32 | 360 | 12.9 | 20.9 | 0.00 | 0.00 | 0.00 | 55 | 1014.2 |
| 20260902015341 | 32 | 360 | 12.9 | 20.9 | 0.00 | 0.00 | 0.00 | 55 | 1014.3 |
| 20260902015220 | 32 | 360 | 12.9 | 20.9 | 0.00 | 0.00 | 0.00 | 55 | 1014.3 |
| 20260902015120 | 32 | 157 | 14.5 | 20.9 | 0.00 | 0.00 | 0.00 | 55 | 1014.2 |
| 20260902015019 | 32 | 360 | 14.5 | 20.9 | 0.00 | 0.00 | 0.00 | 55 | 1014.2 |
| 20260902014920 | 32 | 360 | 14.5 | 22.5 | 0.00 | 0.00 | 0.00 | 55 | 1014.3 |
| 20260902014822 | 32 | 360 | 14.5 | 29.0 | 0.00 | 0.00 | 0.00 | 55 | 1014.2 |
| 20260902014742 | 32 | 360 | 12.9 | 30.6 | 0.00 | 0.00 | 0.00 | 55 | 1014.2 |
| 20260902014622 | 32 | 360 | 11.3 | 30.6 | 0.00 | 0.00 | 0.00 | 55 | 1014.2 |
| 20260902014526 | 32 | 360 | 11.3 | 30.6 | 0.00 | 0.00 | 0.00 | 55 | 1014.2 |
| 20260902014447 | 32 | 360 | 11.3 | 30.6 | 0.00 | 0.00 | 0.00 | 55 | 1014.2 |
| 20260902014326 | 32 | 360 | 12.9 | 30.6 | 0.00 | 0.00 | 0.00 | 55 | 1014.2 |
| 20260902014226 | 32 | 360 | 16.1 | 30.6 | 0.00 | 0.00 | 0.00 | 54 | 1014.2 |
| 20260902014127 | 32 | 360 | 20.9 | 32.2 | 0.00 | 0.00 | 0.00 | 54 | 1014.1 |
| 20260902014027 | 32 | 360 | 20.9 | 32.2 | 0.00 | 0.00 | 0.00 | 54 | 1014.2 |
| 20260902013928 | 32 | 360 | 20.9 | 32.2 | 0.00 | 0.00 | 0.00 | 54 | 1014.2 |
| 20260902013833 | 32 | 360 | 19.3 | 32.2 | 0.00 | 0.00 | 0.00 | 54 | 1014.2 |
| 20260902013733 | 32 | 360 | 19.3 | 32.2 | 0.00 | 0.00 | 0.00 | 54 | 1014.2 |
| 20260902013634 | 32 | 143 | 19.3 | 32.2 | 0.00 | 0.00 | 0.00 | 54 | 1014.2 |
| 20260902013555 | 32 | 360 | 20.9 | 32.2 | 0.00 | 0.00 | 0.00 | 54 | 1014.2 |
| 20260902013434 | 32 | 360 | 17.7 | 32.2 | 0.00 | 0.00 | 0.00 | 54 | 1014.2 |
| 20260902013335 | 32 | 360 | 17.7 | 32.2 | 0.00 | 0.00 | 0.00 | 54 | 1014.1 |
| 20260902013220 | 32 | 360 | 14.5 | 20.9 | 0.00 | 0.00 | 0.00 | 54 | 1014.1 |
| 20260902013120 | 32 | 360 | 12.9 | 20.9 | 0.00 | 0.00 | 0.00 | 54 | 1014.1 |
| 20260902013020 | 32 | 360 | 12.9 | 20.9 | 0.00 | 0.00 | 0.00 | 54 | 1014.1 |
| 20260902012940 | 32 | 360 | 11.3 | 19.3 | 0.00 | 0.00 | 0.00 | 54 | 1014.1 |
| 20260902012822 | 32 | 360 | 11.3 | 19.3 | 0.00 | 0.00 | 0.00 | 54 | 1014.0 |
| 20260902012742 | 32 | 360 | 11.3 | 20.9 | 0.00 | 0.00 | 0.00 | 53 | 1014.0 |
| 20260902012616 | 32 | 360 | 11.3 | 20.9 | 0.00 | 0.00 | 0.00 | 53 | 1014.0 |
| 20260902012520 | 32 | 360 | 9.7 | 20.9 | 0.00 | 0.00 | 0.00 | 53 | 1014.0 |
| 20260902012420 | 32 | 360 | 9.7 | 20.9 | 0.00 | 0.00 | 0.00 | 53 | 1014.0 |
| 20260902012341 | 32 | 360 | 11.3 | 20.9 | 0.00 | 0.00 | 0.00 | 53 | 1014.0 |
| 20260902012221 | 32 | 360 | 12.9 | 20.9 | 0.00 | 0.00 | 0.00 | 53 | 1014.0 |
| 20260902012121 | 32 | 360 | 14.5 | 20.9 | 0.00 | 0.00 | 0.00 | 53 | 1013.9 |
| 20260902012023 | 32 | 360 | 14.5 | 20.9 | 0.00 | 0.00 | 0.00 | 53 | 1013.9 |
| 20260902011923 | 32 | 360 | 16.1 | 20.9 | 0.00 | 0.00 | 0.00 | 52 | 1013.9 |
| 20260902011844 | 32 | 360 | 12.9 | 20.9 | 0.00 | 0.00 | 0.00 | 52 | 1013.9 |
| 20260902011727 | 32 | 360 | 9.7 | 20.9 | 0.00 | 0.00 | 0.00 | 52 | 1013.9 |
| 20260902011627 | 32 | 360 | 6.4 | 12.9 | 0.00 | 0.00 | 0.00 | 52 | 1013.8 |
| 20260902011528 | 33 | 360 | 4.8 | 8.0 | 0.00 | 0.00 | 0.00 | 52 | 1013.8 |
| 20260902011428 | 33 | 360 | 4.8 | 8.0 | 0.00 | 0.00 | 0.00 | 52 | 1013.8 |
| 20260902011350 | 33 | 360 | 4.8 | 8.0 | 0.00 | 0.00 | 0.00 | 52 | 1013.8 |
| 20260902011230 | 33 | 360 | 4.8 | 8.0 | 0.00 | 0.00 | 0.00 | 52 | 1013.8 |
| 20260902011131 | 33 | 360 | 4.8 | 8.0 | 0.00 | 0.00 | 0.00 | 51 | 1013.8 |
| 20260902011056 | 33 | 360 | 4.8 | 12.9 | 0.00 | 0.00 | 0.00 | 51 | 1013.8 |
| 20260902010936 | 33 | 360 | 3.2 | 12.9 | 0.00 | 0.00 | 0.00 | 51 | 1013.8 |
| 20260902010856 | 33 | 360 | 4.8 | 12.9 | 0.00 | 0.00 | 0.00 | 51 | 1013.8 |
| 20260902010736 | 33 | 360 | 4.8 | 12.9 | 0.00 | 0.00 | 0.00 | 51 | 1013.7 |
| 20260902010656 | 33 | 360 | 3.2 | 14.5 | 0.00 | 0.00 | 0.00 | 51 | 1013.8 |
| 20260902010556 | 33 | 360 | 3.2 | 14.5 | 0.00 | 0.00 | 0.00 | 51 | 1013.8 |
| 20260902010435 | 33 | 360 | 4.8 | 14.5 | 0.00 | 0.00 | 0.00 | 51 | 1013.7 |
| 20260902010336 | 33 | 360 | 4.8 | 14.5 | 0.00 | 0.00 | 0.00 | 51 | 1013.7 |
| 20260902010240 | 33 | 360 | 6.4 | 14.5 | 0.00 | 0.00 | 0.00 | 51 | 1013.7 |
| 20260902010120 | 33 | 360 | 8.0 | 17.7 | 0.00 | 0.00 | 0.00 | 51 | 1013.7 |
| 20260902010041 | 33 | 360 | 8.0 | 17.7 | 0.00 | 0.00 | 0.00 | 51 | 1013.5 |
| 20260902005920 | 33 | 360 | 9.7 | 17.7 | 0.00 | 0.00 | 0.00 | 51 | 1013.5 |
| 20260902005822 | 33 | 360 | 11.3 | 17.7 | 0.00 | 0.00 | 0.00 | 51 | 1013.7 |
| 20260902005720 | 33 | 360 | 11.3 | 17.7 | 0.00 | 0.00 | 0.00 | 51 | 1013.5 |
| 20260902005621 | 33 | 360 | 9.7 | 17.7 | 0.00 | 0.00 | 0.00 | 51 | 1013.5 |
| 20260902005525 | 33 | 360 | 11.3 | 17.7 | 0.00 | 0.00 | 0.00 | 51 | 1013.6 |
| 20260902005426 | 33 | 360 | 9.7 | 17.7 | 0.00 | 0.00 | 0.00 | 51 | 1013.6 |
| 20260902005325 | 33 | 360 | 8.0 | 17.7 | 0.00 | 0.00 | 0.00 | 51 | 1013.7 |
| 20260902005246 | 33 | 360 | 8.0 | 14.5 | 0.00 | 0.00 | 0.00 | 51 | 1013.7 |
| 20260902005125 | 33 | 360 | 6.4 | 14.5 | 0.00 | 0.00 | 0.00 | 51 | 1013.5 |
| 20260902005026 | 33 | 360 | 8.0 | 14.5 | 0.00 | 0.00 | 0.00 | 51 | 1013.5 |
| 20260902004926 | 33 | 360 | 6.4 | 14.5 | 0.00 | 0.00 | 0.00 | 51 | 1013.7 |
| 20260902004830 | 33 | 360 | 8.0 | 14.5 | 0.00 | 0.00 | 0.00 | 51 | 1013.7 |
| 20260902004731 | 33 | 360 | 8.0 | 12.9 | 0.00 | 0.00 | 0.00 | 51 | 1013.7 |
| 20260902004632 | 33 | 360 | 8.0 | 12.9 | 0.00 | 0.00 | 0.00 | 50 | 1013.8 |
| 20260902004531 | 33 | 360 | 8.0 | 12.9 | 0.00 | 0.00 | 0.00 | 51 | 1013.7 |
| 20260902004432 | 33 | 360 | 6.4 | 12.9 | 0.00 | 0.00 | 0.00 | 50 | 1013.8 |
| 20260902004353 | 33 | 360 | 6.4 | 12.9 | 0.00 | 0.00 | 0.00 | 50 | 1013.8 |
| 20260902004231 | 33 | 360 | 6.4 | 12.9 | 0.00 | 0.00 | 0.00 | 50 | 1013.8 |
| 20260902004116 | 33 | 360 | 6.4 | 12.9 | 0.00 | 0.00 | 0.00 | 50 | 1013.8 |
| 20260902004016 | 33 | 360 | 6.4 | 12.9 | 0.00 | 0.00 | 0.00 | 50 | 1013.8 |
| 20260902003937 | 33 | 360 | 6.4 | 12.9 | 0.00 | 0.00 | 0.00 | 50 | 1013.8 |
| 20260902003817 | 33 | 360 | 6.4 | 12.9 | 0.00 | 0.00 | 0.00 | 50 | 1013.8 |
| 20260902003718 | 33 | 360 | 6.4 | 12.9 | 0.00 | 0.00 | 0.00 | 50 | 1013.9 |
| 20260902003618 | 33 | 360 | 6.4 | 12.9 | 0.00 | 0.00 | 0.00 | 50 | 1013.9 |
| 20260902003519 | 33 | 360 | 6.4 | 12.9 | 0.00 | 0.00 | 0.00 | 50 | 1013.9 |
| 20260902003424 | 33 | 360 | 8.0 | 12.9 | 0.00 | 0.00 | 0.00 | 50 | 1014.0 |
| 20260902003325 | 33 | 360 | 6.4 | 12.9 | 0.00 | 0.00 | 0.00 | 50 | 1013.9 |
| 20260902003225 | 33 | 360 | 6.4 | 12.9 | 0.00 | 0.00 | 0.00 | 50 | 1014.0 |
| 20260902003126 | 33 | 360 | 4.8 | 12.9 | 0.00 | 0.00 | 0.00 | 50 | 1014.0 |
| 20260902003025 | 33 | 360 | 4.8 | 9.7 | 0.00 | 0.00 | 0.00 | 50 | 1014.0 |
| 20260902002926 | 33 | 360 | 6.4 | 14.5 | 0.00 | 0.00 | 0.00 | 50 | 1014.0 |
| 20260902002828 | 34 | 360 | 6.4 | 14.5 | 0.00 | 0.00 | 0.00 | 50 | 1014.0 |
| 20260902002732 | 34 | 360 | 4.8 | 14.5 | 0.00 | 0.00 | 0.00 | 49 | 1014.0 |
| 20260902002632 | 34 | 360 | 6.4 | 14.5 | 0.00 | 0.00 | 0.00 | 49 | 1014.0 |
| 20260902002534 | 34 | 360 | 6.4 | 14.5 | 0.00 | 0.00 | 0.00 | 49 | 1014.0 |
| 20260902002433 | 34 | 360 | 6.4 | 14.5 | 0.00 | 0.00 | 0.00 | 49 | 1014.0 |
| 20260902002335 | 34 | 360 | 8.0 | 14.5 | 0.00 | 0.00 | 0.00 | 49 | 1014.0 |
| 20260902002236 | 34 | 360 | 8.0 | 16.1 | 0.00 | 0.00 | 0.00 | 49 | 1014.0 |
| 20260902002120 | 34 | 360 | 9.7 | 16.1 | 0.00 | 0.00 | 0.00 | 49 | 1014.0 |
| 20260902002021 | 34 | 360 | 8.0 | 16.1 | 0.00 | 0.00 | 0.00 | 49 | 1014.0 |
| 20260902001922 | 34 | 360 | 6.4 | 16.1 | 0.00 | 0.00 | 0.00 | 49 | 1014.0 |
| 20260902001823 | 34 | 161 | 6.4 | 16.1 | 0.00 | 0.00 | 0.00 | 49 | 1014.0 |
| 20260902001723 | 34 | 360 | 6.4 | 16.1 | 0.00 | 0.00 | 0.00 | 49 | 1014.0 |
| 20260902001623 | 34 | 360 | 6.4 | 20.9 | 0.00 | 0.00 | 0.00 | 49 | 1014.0 |
| 20260902001522 | 34 | 360 | 8.0 | 20.9 | 0.00 | 0.00 | 0.00 | 49 | 1014.0 |
| 20260902001428 | 34 | 360 | 8.0 | 20.9 | 0.00 | 0.00 | 0.00 | 48 | 1013.9 |
| 20260902001329 | 34 | 360 | 8.0 | 20.9 | 0.00 | 0.00 | 0.00 | 48 | 1013.9 |
| 20260902001229 | 34 | 360 | 8.0 | 20.9 | 0.00 | 0.00 | 0.00 | 48 | 1013.9 |
| 20260902001131 | 34 | 360 | 6.4 | 22.5 | 0.00 | 0.00 | 0.00 | 48 | 1013.9 |
| 20260902001030 | 34 | 360 | 6.4 | 22.5 | 0.00 | 0.00 | 0.00 | 48 | 1014.0 |
| 20260902000951 | 34 | 360 | 6.4 | 24.1 | 0.00 | 0.00 | 0.00 | 48 | 1013.9 |
| 20260902000829 | 34 | 360 | 6.4 | 25.7 | 0.00 | 0.00 | 0.00 | 48 | 1013.9 |
| 20260902000733 | 34 | 360 | 8.0 | 25.7 | 0.00 | 0.00 | 0.00 | 48 | 1014.0 |
| 20260902000654 | 34 | 360 | 11.3 | 25.7 | 0.00 | 0.00 | 0.00 | 48 | 1013.9 |
| 20260902000553 | 34 | 360 | 12.9 | 25.7 | 0.00 | 0.00 | 0.00 | 48 | 1013.9 |
| 20260902000433 | 34 | 360 | 14.5 | 25.7 | 0.00 | 0.00 | 0.00 | 48 | 1013.9 |
| 20260902000334 | 34 | 360 | 12.9 | 25.7 | 0.00 | 0.00 | 0.00 | 48 | 1013.9 |
| 20260902000234 | 34 | 103 | 14.5 | 25.7 | 0.00 | 0.00 | 0.00 | 48 | 1013.9 |
| 20260902000134 | 34 | 360 | 14.5 | 25.7 | 0.00 | 0.00 | 0.00 | 48 | 1013.9 |
| 20260902000019 | 35 | 360 | 12.9 | 25.7 | 0.00 | 0.00 | 0.00 | 48 | 1013.9 |
| 20260901235917 | 35 | 360 | 12.9 | 22.5 | 0.00 | 0.00 | 0.00 | 48 | 1013.9 |
| 20260901235819 | 35 | 360 | 11.3 | 22.5 | 0.00 | 0.00 | 0.00 | 48 | 1013.9 |
| 20260901235718 | 35 | 173 | 9.7 | 24.1 | 0.00 | 0.00 | 0.00 | 47 | 1013.9 |
| 20260901235619 | 35 | 360 | 9.7 | 24.1 | 0.00 | 0.00 | 0.00 | 48 | 1013.9 |
| 20260901235521 | 35 | 360 | 8.0 | 25.7 | 0.00 | 0.00 | 0.00 | 48 | 1013.9 |
| 20260901235422 | 35 | 360 | 8.0 | 25.7 | 0.00 | 0.00 | 0.00 | 48 | 1013.9 |
| 20260901235327 | 35 | 360 | 8.0 | 25.7 | 0.00 | 0.00 | 0.00 | 47 | 1013.9 |
| 20260901235227 | 35 | 360 | 11.3 | 25.7 | 0.00 | 0.00 | 0.00 | 47 | 1013.9 |
| 20260901235128 | 35 | 105 | 11.3 | 25.7 | 0.00 | 0.00 | 0.00 | 47 | 1013.8 |
| 20260901235048 | 35 | 360 | 14.5 | 25.7 | 0.00 | 0.00 | 0.00 | 47 | 1013.9 |
| 20260901234928 | 35 | 360 | 14.5 | 25.7 | 0.00 | 0.00 | 0.00 | 47 | 1013.8 |
| 20260901234828 | 35 | 360 | 12.9 | 25.7 | 0.00 | 0.00 | 0.00 | 47 | 1014.0 |
| 20260901234728 | 35 | 360 | 11.3 | 25.7 | 0.00 | 0.00 | 0.00 | 47 | 1013.8 |
| 20260901234629 | 35 | 360 | 8.0 | 24.1 | 0.00 | 0.00 | 0.00 | 47 | 1013.8 |
| 20260901234535 | 35 | 360 | 9.7 | 24.1 | 0.00 | 0.00 | 0.00 | 46 | 1013.8 |
| 20260901234436 | 35 | 360 | 9.7 | 24.1 | 0.00 | 0.00 | 0.00 | 46 | 1013.8 |
| 20260901234317 | 35 | 106 | 12.9 | 24.1 | 0.00 | 0.00 | 0.00 | 46 | 1013.9 |
| 20260901234217 | 35 | 360 | 14.5 | 24.1 | 0.00 | 0.00 | 0.00 | 46 | 1013.9 |
| 20260901234118 | 35 | 360 | 12.9 | 24.1 | 0.00 | 0.00 | 0.00 | 46 | 1013.9 |
| 20260901234019 | 35 | 360 | 12.9 | 24.1 | 0.00 | 0.00 | 0.00 | 45 | 1013.8 |
| 20260901233923 | 35 | 360 | 11.3 | 20.9 | 0.00 | 0.00 | 0.00 | 45 | 1013.8 |
| 20260901233824 | 35 | 360 | 11.3 | 20.9 | 0.00 | 0.00 | 0.00 | 45 | 1013.8 |
| 20260901233725 | 35 | 360 | 9.7 | 20.9 | 0.00 | 0.00 | 0.00 | 45 | 1013.8 |
| 20260901233626 | 35 | 360 | 8.0 | 17.7 | 0.00 | 0.00 | 0.00 | 45 | 1013.8 |
| 20260901233527 | 35 | 360 | 8.0 | 17.7 | 0.00 | 0.00 | 0.00 | 45 | 1013.8 |
| 20260901233427 | 35 | 360 | 6.4 | 17.7 | 0.00 | 0.00 | 0.00 | 46 | 1013.8 |
| 20260901233331 | 35 | 360 | 6.4 | 17.7 | 0.00 | 0.00 | 0.00 | 46 | 1013.7 |
| 20260901233252 | 35 | 360 | 8.0 | 17.7 | 0.00 | 0.00 | 0.00 | 46 | 1013.8 |
| 20260901233132 | 35 | 360 | 8.0 | 17.7 | 0.00 | 0.00 | 0.00 | 45 | 1013.7 |
| 20260901233032 | 35 | 82 | 9.7 | 17.7 | 0.00 | 0.00 | 0.00 | 45 | 1013.8 |
| 20260901232933 | 35 | 49 | 9.7 | 17.7 | 0.00 | 0.00 | 0.00 | 45 | 1013.7 |
| 20260901232835 | 36 | 360 | 9.7 | 17.7 | 0.00 | 0.00 | 0.00 | 45 | 1013.7 |
| 20260901232735 | 36 | 360 | 8.0 | 17.7 | 0.00 | 0.00 | 0.00 | 45 | 1013.7 |
| 20260901232619 | 36 | 360 | 4.8 | 12.9 | 0.00 | 0.00 | 0.00 | 45 | 1013.8 |
| 20260901232520 | 36 | 360 | 4.8 | 12.9 | 0.00 | 0.00 | 0.00 | 45 | 1013.7 |
| 20260901232419 | 36 | 360 | 4.8 | 27.4 | 0.00 | 0.00 | 0.00 | 45 | 1013.8 |
| 20260901232321 | 36 | 360 | 4.8 | 27.4 | 0.00 | 0.00 | 0.00 | 45 | 1013.8 |
| 20260901232221 | 36 | 360 | 4.8 | 27.4 | 0.00 | 0.00 | 0.00 | 45 | 1013.7 |
| 20260901232122 | 36 | 360 | 4.8 | 27.4 | 0.00 | 0.00 | 0.00 | 46 | 1013.7 |
| 20260901232026 | 36 | 140 | 4.8 | 27.4 | 0.00 | 0.00 | 0.00 | 45 | 1013.7 |
| 20260901231927 | 36 | 360 | 6.4 | 27.4 | 0.00 | 0.00 | 0.00 | 45 | 1013.8 |
| 20260901231828 | 36 | 360 | 9.7 | 27.4 | 0.00 | 0.00 | 0.00 | 45 | 1013.8 |
| 20260901231747 | 36 | 360 | 12.9 | 27.4 | 0.00 | 0.00 | 0.00 | 45 | 1013.7 |
| 20260901231647 | 36 | 149 | 16.1 | 27.4 | 0.00 | 0.00 | 0.00 | 45 | 1013.8 |
| 20260901231526 | 36 | 141 | 16.1 | 25.7 | 0.00 | 0.00 | 0.00 | 45 | 1013.7 |
| 20260901231446 | 36 | 360 | 16.1 | 25.7 | 0.00 | 0.00 | 0.00 | 45 | 1013.7 |
| 20260901231345 | 36 | 360 | 14.5 | 25.7 | 0.00 | 0.00 | 0.00 | 44 | 1013.7 |
| 20260901231225 | 36 | 360 | 14.5 | 25.7 | 0.00 | 0.00 | 0.00 | 44 | 1013.7 |
| 20260901231129 | 36 | 360 | 11.3 | 25.7 | 0.00 | 0.00 | 0.00 | 45 | 1013.7 |
| 20260901231050 | 36 | 360 | 11.3 | 22.5 | 0.00 | 0.00 | 0.00 | 45 | 1013.7 |
| 20260901230930 | 36 | 123 | 11.3 | 20.9 | 0.00 | 0.00 | 0.00 | 45 | 1013.7 |
| 20260901230831 | 36 | 360 | 14.5 | 20.9 | 0.00 | 0.00 | 0.00 | 44 | 1013.6 |
| 20260901230732 | 36 | 360 | 14.5 | 20.9 | 0.00 | 0.00 | 0.00 | 44 | 1013.7 |
| 20260901230633 | 36 | 360 | 11.3 | 20.9 | 0.00 | 0.00 | 0.00 | 44 | 1013.7 |
| 20260901230518 | 36 | 360 | 9.7 | 20.9 | 0.00 | 0.00 | 0.00 | 44 | 1013.7 |
| 20260901230419 | 36 | 360 | 8.0 | 17.7 | 0.00 | 0.00 | 0.00 | 44 | 1013.7 |
| 20260901230339 | 36 | 360 | 8.0 | 17.7 | 0.00 | 0.00 | 0.00 | 44 | 1013.8 |
| 20260901230219 | 36 | 360 | 8.0 | 17.7 | 0.00 | 0.00 | 0.00 | 44 | 1013.6 |
| 20260901230120 | 36 | 360 | 4.8 | 17.7 | 0.00 | 0.00 | 0.00 | 45 | 1013.7 |
| 20260901230021 | 36 | 360 | 6.4 | 17.7 | 0.00 | 0.00 | 0.00 | 44 | 1013.7 |
| 20260901225941 | 36 | 89 | 8.0 | 17.7 | 0.00 | 0.00 | 0.00 | 44 | 1013.8 |
| 20260901225842 | 36 | 360 | 9.7 | 17.7 | 0.00 | 0.00 | 0.00 | 44 | 1013.8 |
| 20260901225725 | 36 | 360 | 8.0 | 19.3 | 0.00 | 0.00 | 0.00 | 44 | 1013.7 |
| 20260901225646 | 36 | 360 | 8.0 | 19.3 | 0.00 | 0.00 | 0.00 | 44 | 1013.7 |
| 20260901225545 | 36 | 360 | 6.4 | 19.3 | 0.00 | 0.00 | 0.00 | 43 | 1013.7 |
| 20260901225444 | 36 | 360 | 4.8 | 19.3 | 0.00 | 0.00 | 0.00 | 43 | 1013.7 |
| 20260901225323 | 36 | 360 | 6.4 | 20.9 | 0.00 | 0.00 | 0.00 | 43 | 1013.7 |
| 20260901225224 | 36 | 360 | 8.0 | 20.9 | 0.00 | 0.00 | 0.00 | 43 | 1013.7 |
| 20260901225125 | 36 | 360 | 11.3 | 20.9 | 0.00 | 0.00 | 0.00 | 43 | 1013.7 |
| 20260901225025 | 36 | 360 | 12.9 | 20.9 | 0.00 | 0.00 | 0.00 | 43 | 1013.7 |
| 20260901224930 | 36 | 360 | 11.3 | 20.9 | 0.00 | 0.00 | 0.00 | 43 | 1013.7 |
| 20260901224831 | 36 | 360 | 11.3 | 20.9 | 0.00 | 0.00 | 0.00 | 43 | 1013.5 |
| 20260901224731 | 36 | 149 | 11.3 | 20.9 | 0.00 | 0.00 | 0.00 | 43 | 1013.6 |
| 20260901224632 | 36 | 360 | 9.7 | 20.9 | 0.00 | 0.00 | 0.00 | 43 | 1013.6 |
| 20260901224533 | 36 | 360 | 9.7 | 20.9 | 0.00 | 0.00 | 0.00 | 42 | 1013.5 |
| 20260901224433 | 36 | 360 | 8.0 | 17.7 | 0.00 | 0.00 | 0.00 | 42 | 1013.5 |
| 20260901224317 | 36 | 360 | 11.3 | 17.7 | 0.00 | 0.00 | 0.00 | 42 | 1013.6 |
| 20260901224218 | 36 | 360 | 9.7 | 17.7 | 0.00 | 0.00 | 0.00 | 42 | 1013.6 |
| 20260901224119 | 36 | 360 | 8.0 | 16.1 | 0.00 | 0.00 | 0.00 | 42 | 1013.6 |
| 20260901224018 | 36 | 360 | 6.4 | 16.1 | 0.00 | 0.00 | 0.00 | 42 | 1013.7 |
| 20260901223919 | 36 | 360 | 4.8 | 14.5 | 0.00 | 0.00 | 0.00 | 42 | 1013.5 |
| 20260901223819 | 36 | 360 | 4.8 | 14.5 | 0.00 | 0.00 | 0.00 | 42 | 1013.6 |
| 20260901223720 | 36 | 360 | 6.4 | 14.5 | 0.00 | 0.00 | 0.00 | 42 | 1013.6 |
| 20260901223644 | 36 | 360 | 6.4 | 14.5 | 0.00 | 0.00 | 0.00 | 43 | 1013.6 |
| 20260901223523 | 36 | 360 | 6.4 | 14.5 | 0.00 | 0.00 | 0.00 | 42 | 1013.7 |
| 20260901223424 | 36 | 360 | 6.4 | 14.5 | 0.00 | 0.00 | 0.00 | 43 | 1013.7 |
| 20260901223324 | 36 | 360 | 8.0 | 14.5 | 0.00 | 0.00 | 0.00 | 43 | 1013.7 |
| 20260901223225 | 36 | 360 | 8.0 | 14.5 | 0.00 | 0.00 | 0.00 | 43 | 1013.7 |
| 20260901223124 | 36 | 360 | 8.0 | 14.5 | 0.00 | 0.00 | 0.00 | 43 | 1013.7 |
| 20260901223025 | 36 | 360 | 8.0 | 16.1 | 0.00 | 0.00 | 0.00 | 43 | 1013.7 |
| 20260901222931 | 36 | 360 | 8.0 | 16.1 | 0.00 | 0.00 | 0.00 | 43 | 1013.7 |
| 20260901222833 | 36 | 360 | 6.4 | 16.1 | 0.00 | 0.00 | 0.00 | 44 | 1013.7 |
| 20260901222732 | 36 | 360 | 6.4 | 16.1 | 0.00 | 0.00 | 0.00 | 43 | 1013.6 |
| 20260901222633 | 36 | 360 | 8.0 | 16.1 | 0.00 | 0.00 | 0.00 | 43 | 1013.7 |
| 20260901222534 | 36 | 360 | 8.0 | 16.1 | 0.00 | 0.00 | 0.00 | 43 | 1013.7 |
| 20260901222434 | 36 | 360 | 8.0 | 16.1 | 0.00 | 0.00 | 0.00 | 42 | 1013.8 |
| 20260901222319 | 36 | 360 | 8.0 | 16.1 | 0.00 | 0.00 | 0.00 | 44 | 1013.8 |
| 20260901222218 | 36 | 360 | 6.4 | 16.1 | 0.00 | 0.00 | 0.00 | 44 | 1013.8 |
| 20260901222119 | 36 | 360 | 6.4 | 16.1 | 0.00 | 0.00 | 0.00 | 44 | 1013.7 |
| 20260901222020 | 35 | 360 | 8.0 | 16.1 | 0.00 | 0.00 | 0.00 | 42 | 1013.8 |
| 20260901221920 | 35 | 360 | 9.7 | 16.1 | 0.00 | 0.00 | 0.00 | 42 | 1013.8 |
| 20260901221821 | 35 | 360 | 9.7 | 16.1 | 0.00 | 0.00 | 0.00 | 43 | 1013.8 |
| 20260901221721 | 35 | 360 | 9.7 | 16.1 | 0.00 | 0.00 | 0.00 | 44 | 1013.8 |
| 20260901221625 | 35 | 360 | 9.7 | 17.7 | 0.00 | 0.00 | 0.00 | 44 | 1013.9 |
| 20260901221526 | 35 | 360 | 9.7 | 20.9 | 0.00 | 0.00 | 0.00 | 43 | 1013.9 |
| 20260901221426 | 35 | 360 | 11.3 | 20.9 | 0.00 | 0.00 | 0.00 | 43 | 1013.7 |
| 20260901221348 | 36 | 360 | 9.7 | 20.9 | 0.00 | 0.00 | 0.00 | 45 | 1013.9 |
| 20260901221227 | 36 | 360 | 9.7 | 20.9 | 0.00 | 0.00 | 0.00 | 45 | 1013.9 |
| 20260901221127 | 36 | 360 | 8.0 | 20.9 | 0.00 | 0.00 | 0.00 | 45 | 1013.8 |
| 20260901221028 | 36 | 360 | 9.7 | 20.9 | 0.00 | 0.00 | 0.00 | 45 | 1013.8 |
| 20260901220933 | 36 | 360 | 9.7 | 20.9 | 0.00 | 0.00 | 0.00 | 44 | 1013.9 |
| 20260901220833 | 36 | 360 | 9.7 | 20.9 | 0.00 | 0.00 | 0.00 | 44 | 1013.9 |
| 20260901220753 | 36 | 360 | 11.3 | 20.9 | 0.00 | 0.00 | 0.00 | 45 | 1013.8 |
| 20260901220633 | 36 | 360 | 12.9 | 20.9 | 0.00 | 0.00 | 0.00 | 44 | 1013.8 |
| 20260901220534 | 36 | 360 | 11.3 | 20.9 | 0.00 | 0.00 | 0.00 | 44 | 1013.8 |
| 20260901220433 | 36 | 360 | 9.7 | 19.3 | 0.00 | 0.00 | 0.00 | 45 | 1013.7 |
| 20260901220334 | 36 | 360 | 8.0 | 14.5 | 0.00 | 0.00 | 0.00 | 45 | 1013.9 |
| 20260901220217 | 36 | 360 | 8.0 | 14.5 | 0.00 | 0.00 | 0.00 | 44 | 1013.8 |
| 20260901220118 | 36 | 360 | 6.4 | 17.7 | 0.00 | 0.00 | 0.00 | 44 | 1013.9 |
| 20260901220039 | 36 | 360 | 4.8 | 17.7 | 0.00 | 0.00 | 0.00 | 43 | 1013.8 |
| 20260901215918 | 36 | 360 | 4.8 | 17.7 | 0.00 | 0.00 | 0.00 | 43 | 1013.9 |
| 20260901215819 | 36 | 360 | 4.8 | 17.7 | 0.00 | 0.00 | 0.00 | 43 | 1013.8 |
| 20260901215719 | 36 | 360 | 4.8 | 17.7 | 0.00 | 0.00 | 0.00 | 43 | 1013.8 |
| 20260901215620 | 36 | 360 | 6.4 | 17.7 | 0.00 | 0.00 | 0.00 | 42 | 1013.8 |
| 20260901215525 | 36 | 360 | 9.7 | 17.7 | 0.00 | 0.00 | 0.00 | 42 | 1013.9 |
| 20260901215445 | 36 | 155 | 11.3 | 17.7 | 0.00 | 0.00 | 0.00 | 42 | 1013.9 |
| 20260901215325 | 36 | 360 | 9.7 | 17.7 | 0.00 | 0.00 | 0.00 | 42 | 1013.9 |
| 20260901215224 | 36 | 360 | 8.0 | 16.1 | 0.00 | 0.00 | 0.00 | 42 | 1013.8 |
| 20260901215123 | 36 | 360 | 4.8 | 9.7 | 0.00 | 0.00 | 0.00 | 42 | 1013.8 |
| 20260901215024 | 36 | 360 | 4.8 | 9.7 | 0.00 | 0.00 | 0.00 | 41 | 1013.8 |
| 20260901214924 | 36 | 173 | 3.2 | 9.7 | 0.00 | 0.00 | 0.00 | 43 | 1013.8 |
| 20260901214825 | 36 | 360 | 1.6 | 9.7 | 0.00 | 0.00 | 0.00 | 43 | 1013.8 |
| 20260901214729 | 36 | 360 | 1.6 | 9.7 | 0.00 | 0.00 | 0.00 | 43 | 1013.8 |
| 20260901214629 | 36 | 37 | 1.6 | 12.9 | 0.00 | 0.00 | 0.00 | 43 | 1013.9 |
| 20260901214529 | 36 | 360 | 3.2 | 12.9 | 0.00 | 0.00 | 0.00 | 43 | 1013.9 |
| 20260901214430 | 36 | 360 | 4.8 | 16.1 | 0.00 | 0.00 | 0.00 | 43 | 1013.9 |
| 20260901214330 | 36 | 360 | 6.4 | 16.1 | 0.00 | 0.00 | 0.00 | 43 | 1013.8 |
| 20260901214251 | 36 | 22 | 6.4 | 16.1 | 0.00 | 0.00 | 0.00 | 43 | 1013.8 |
| 20260901214131 | 36 | 80 | 8.0 | 24.1 | 0.00 | 0.00 | 0.00 | 43 | 1013.9 |
| 20260901214034 | 36 | 97 | 8.0 | 24.1 | 0.00 | 0.00 | 0.00 | 43 | 1013.8 |
| 20260901213916 | 36 | 102 | 9.7 | 24.1 | 0.00 | 0.00 | 0.00 | 43 | 1013.9 |
| 20260901213816 | 36 | 360 | 9.7 | 24.1 | 0.00 | 0.00 | 0.00 | 43 | 1013.9 |
| 20260901213716 | 36 | 360 | 9.7 | 24.1 | 0.00 | 0.00 | 0.00 | 42 | 1013.8 |
| 20260901213617 | 36 | 360 | 11.3 | 24.1 | 0.00 | 0.00 | 0.00 | 43 | 1013.9 |
| 20260901213517 | 36 | 360 | 12.9 | 24.1 | 0.00 | 0.00 | 0.00 | 42 | 1013.9 |
| 20260901213422 | 36 | 360 | 14.5 | 24.1 | 0.00 | 0.00 | 0.00 | 42 | 1013.9 |
| 20260901213322 | 36 | 360 | 12.9 | 24.1 | 0.00 | 0.00 | 0.00 | 43 | 1013.9 |
| 20260901213222 | 36 | 360 | 11.3 | 22.5 | 0.00 | 0.00 | 0.00 | 44 | 1013.9 |
| 20260901213122 | 36 | 360 | 9.7 | 19.3 | 0.00 | 0.00 | 0.00 | 43 | 1013.9 |